Time,TemperatureF,DewpointF,PressureIn,WindDirection,WindDirectionDegrees,WindSpeedMPH,WindSpeedGustMPH,Humidity,HourlyPrecipIn,Conditions,Clouds,dailyrainin,SoftwareType,DateUTC
2013-06-18 00:00:00,68.8,49.2,29.87,NNW,329,0.0,2.0,49,0.00,,,0.00,VWS V14.01,2013-06-18 04:00:00,
2013-06-18 00:01:00,68.8,49.0,29.87,NNE,20,1.3,4.2,49,0.00,,,0.00,VWS V14.01,2013-06-18 04:01:00,
2013-06-18 00:02:00,68.7,49.0,29.87,NNE,20,0.0,1.3,49,0.00,,,0.00,VWS V14.01,2013-06-18 04:02:00,
2013-06-18 00:03:00,68.2,49.3,29.87,NNW,336,0.0,2.0,51,0.00,,,0.00,VWS V14.01,2013-06-18 04:03:00,
2013-06-18 00:06:00,68.6,49.4,29.86,NNW,333,3.2,4.2,50,0.00,,,0.00,VWS V14.01,2013-06-18 04:06:00,
2013-06-18 00:07:00,68.0,49.5,29.86,NW,306,3.0,3.2,52,0.00,,,0.00,VWS V14.01,2013-06-18 04:07:00,
2013-06-18 00:09:00,68.3,50.2,29.87,NW,316,2.5,2.5,52,0.00,,,0.00,VWS V14.01,2013-06-18 04:09:00,
2013-06-18 00:10:00,67.7,50.5,29.86,NW,323,1.1,2.7,54,0.00,,,0.00,VWS V14.01,2013-06-18 04:10:00,
2013-06-18 00:11:00,68.3,48.2,29.86,NW,311,2.8,2.8,49,0.00,,,0.00,VWS V14.01,2013-06-18 04:11:00,
2013-06-18 00:12:00,68.6,49.9,29.87,NW,326,2.7,2.8,51,0.00,,,0.00,VWS V14.01,2013-06-18 04:12:00,
2013-06-18 00:14:00,68.2,50.1,29.86,NNE,20,5.2,5.2,52,0.00,,,0.00,VWS V14.01,2013-06-18 04:14:00,
2013-06-18 00:15:00,68.8,50.2,29.85,NW,326,3.7,3.7,51,0.00,,,0.00,VWS V14.01,2013-06-18 04:15:00,
2013-06-18 00:17:00,68.2,49.6,29.86,NW,324,0.0,2.2,51,0.00,,,0.00,VWS V14.01,2013-06-18 04:17:00,
2013-06-18 00:18:00,68.2,49.5,29.87,NW,324,0.0,1.0,51,0.00,,,0.00,VWS V14.01,2013-06-18 04:18:00,
2013-06-18 00:19:00,68.3,49.6,29.86,NNW,336,1.5,1.5,51,0.00,,,0.00,VWS V14.01,2013-06-18 04:19:00,
2013-06-18 00:21:00,68.3,49.5,29.86,North,351,0.0,1.8,51,0.00,,,0.00,VWS V14.01,2013-06-18 04:21:00,
2013-06-18 00:24:00,67.5,50.1,29.85,WNW,292,0.0,0.0,54,0.00,,,0.00,VWS V14.01,2013-06-18 04:24:00,
2013-06-18 00:25:00,68.2,49.9,29.86,NNW,329,2.2,2.2,52,0.00,,,0.00,VWS V14.01,2013-06-18 04:25:00,
2013-06-18 00:27:00,67.6,50.8,29.86,NW,321,1.3,2.0,55,0.00,,,0.00,VWS V14.01,2013-06-18 04:27:00,
2013-06-18 00:29:00,67.6,50.8,29.85,NW,321,0.0,2.3,55,0.00,,,0.00,VWS V14.01,2013-06-18 04:29:00,
2013-06-18 00:30:00,67.4,51.0,29.85,NW,321,0.0,0.0,56,0.00,,,0.00,VWS V14.01,2013-06-18 04:30:00,
2013-06-18 00:33:00,67.6,51.0,29.86,NW,320,0.0,0.0,55,0.00,,,0.00,VWS V14.01,2013-06-18 04:33:00,
2013-06-18 00:35:00,67.7,50.7,29.85,NW,320,0.0,0.0,55,0.00,,,0.00,VWS V14.01,2013-06-18 04:35:00,
2013-06-18 00:36:00,67.3,52.3,29.85,NW,320,0.0,0.0,59,0.00,,,0.00,VWS V14.01,2013-06-18 04:36:00,
2013-06-18 00:39:00,67.6,51.1,29.86,NW,320,0.0,1.1,55,0.00,,,0.00,VWS V14.01,2013-06-18 04:39:00,
2013-06-18 00:40:00,67.4,51.0,29.86,NW,320,0.0,0.0,55,0.00,,,0.00,VWS V14.01,2013-06-18 04:40:00,
2013-06-18 00:41:00,67.6,50.8,29.85,NW,320,2.8,2.8,55,0.00,,,0.00,VWS V14.01,2013-06-18 04:41:00,
2013-06-18 00:42:00,67.6,51.0,29.86,NW,320,2.7,2.8,55,0.00,,,0.00,VWS V14.01,2013-06-18 04:42:00,
2013-06-18 00:44:00,67.7,50.9,29.85,NNW,329,2.5,2.7,55,0.00,,,0.00,VWS V14.01,2013-06-18 04:44:00,
2013-06-18 00:45:00,67.7,50.9,29.85,NNW,329,2.5,2.7,55,0.00,,,0.00,VWS V14.01,2013-06-18 04:45:00,
2013-06-18 00:46:00,67.4,50.8,29.86,NNW,332,1.3,3.2,55,0.00,,,0.00,VWS V14.01,2013-06-18 04:46:00,
2013-06-18 00:49:00,67.8,50.3,29.86,North,9,2.2,2.2,54,0.00,,,0.00,VWS V14.01,2013-06-18 04:49:00,
2013-06-18 00:50:00,67.8,50.1,29.85,NNW,341,2.3,2.3,53,0.00,,,0.00,VWS V14.01,2013-06-18 04:50:00,
2013-06-18 00:51:00,67.7,50.2,29.85,NNW,336,2.7,2.7,53,0.00,,,0.00,VWS V14.01,2013-06-18 04:51:00,
2013-06-18 00:52:00,67.3,50.0,29.86,NW,323,2.5,2.5,54,0.00,,,0.00,VWS V14.01,2013-06-18 04:52:00,
2013-06-18 00:53:00,67.4,50.2,29.86,NW,324,2.2,2.5,54,0.00,,,0.00,VWS V14.01,2013-06-18 04:53:00,
2013-06-18 00:54:00,67.3,50.6,29.86,NW,314,4.0,4.2,55,0.00,,,0.00,VWS V14.01,2013-06-18 04:54:00,
2013-06-18 00:56:00,67.2,50.7,29.86,WNW,294,5.1,5.1,56,0.00,,,0.00,VWS V14.01,2013-06-18 04:56:00,
2013-06-18 00:57:00,67.0,51.3,29.87,NW,312,4.5,5.6,57,0.00,,,0.00,VWS V14.01,2013-06-18 04:57:00,
2013-06-18 00:58:00,66.6,50.8,29.86,NW,325,6.1,6.1,57,0.00,,,0.00,VWS V14.01,2013-06-18 04:58:00,
2013-06-18 00:59:00,66.9,51.6,29.87,NW,305,5.2,6.1,58,0.00,,,0.00,VWS V14.01,2013-06-18 04:59:00,
2013-06-18 01:01:00,67.5,51.4,29.87,NW,321,6.9,6.9,56,0.00,,,0.00,VWS V14.01,2013-06-18 05:01:00,
2013-06-18 01:03:00,67.5,51.0,29.87,NW,323,8.5,8.5,55,0.00,,,0.00,VWS V14.01,2013-06-18 05:03:00,
2013-06-18 01:05:00,67.1,51.0,29.87,NW,310,8.0,8.0,56,0.00,,,0.00,VWS V14.01,2013-06-18 05:05:00,
2013-06-18 01:07:00,66.8,49.9,29.87,NNW,345,9.7,9.7,54,0.00,,,0.00,VWS V14.01,2013-06-18 05:07:00,
2013-06-18 01:08:00,68.5,49.3,29.87,NNW,340,7.6,12.3,50,0.00,,,0.00,VWS V14.01,2013-06-18 05:08:00,
2013-06-18 01:10:00,68.6,48.9,29.88,NW,314,11.4,11.4,49,0.00,,,0.00,VWS V14.01,2013-06-18 05:10:00,
2013-06-18 01:11:00,68.5,48.6,29.87,NNE,23,11.1,11.1,49,0.00,,,0.00,VWS V14.01,2013-06-18 05:11:00,
2013-06-18 01:12:00,68.2,48.4,29.87,North,351,11.4,11.4,49,0.00,,,0.00,VWS V14.01,2013-06-18 05:12:00,
2013-06-18 01:14:00,68.7,47.8,29.87,NE,47,8.0,8.0,47,0.00,,,0.00,VWS V14.01,2013-06-18 05:14:00,
2013-06-18 01:15:00,68.2,47.6,29.87,NNW,336,11.4,11.4,48,0.00,,,0.00,VWS V14.01,2013-06-18 05:15:00,
2013-06-18 01:16:00,68.6,47.4,29.88,NNW,348,5.7,11.4,47,0.00,,,0.00,VWS V14.01,2013-06-18 05:16:00,
2013-06-18 01:17:00,68.4,47.4,29.88,NNE,28,4.0,6.8,47,0.00,,,0.00,VWS V14.01,2013-06-18 05:17:00,
2013-06-18 01:20:00,68.0,47.4,29.87,North,8,3.5,6.3,48,0.00,,,0.00,VWS V14.01,2013-06-18 05:20:00,
2013-06-18 01:21:00,68.1,47.5,29.87,North,0,3.2,6.3,48,0.00,,,0.00,VWS V14.01,2013-06-18 05:21:00,
2013-06-18 01:22:00,67.5,47.7,29.87,North,9,3.0,3.0,49,0.00,,,0.00,VWS V14.01,2013-06-18 05:22:00,
2013-06-18 01:23:00,67.9,47.5,29.87,West,276,7.5,7.5,48,0.00,,,0.00,VWS V14.01,2013-06-18 05:23:00,
2013-06-18 01:26:00,67.4,47.5,29.87,North,360,6.9,7.8,49,0.00,,,0.00,VWS V14.01,2013-06-18 05:26:00,
2013-06-18 01:28:00,67.8,47.4,29.87,NW,310,12.4,12.4,48,0.00,,,0.00,VWS V14.01,2013-06-18 05:28:00,
2013-06-18 01:29:00,67.7,47.3,29.86,NNW,331,9.5,9.5,48,0.00,,,0.00,VWS V14.01,2013-06-18 05:29:00,
2013-06-18 01:31:00,67.1,47.5,29.87,NW,307,4.7,6.1,49,0.00,,,0.00,VWS V14.01,2013-06-18 05:31:00,
2013-06-18 01:33:00,67.2,47.6,29.87,NW,320,6.1,6.6,49,0.00,,,0.00,VWS V14.01,2013-06-18 05:33:00,
2013-06-18 01:34:00,67.1,47.8,29.88,NNW,342,6.3,6.3,50,0.00,,,0.00,VWS V14.01,2013-06-18 05:34:00,
2013-06-18 01:35:00,67.0,47.4,29.87,NW,321,3.7,6.3,49,0.00,,,0.00,VWS V14.01,2013-06-18 05:35:00,
2013-06-18 01:36:00,67.0,47.8,29.86,North,7,3.5,5.6,50,0.00,,,0.00,VWS V14.01,2013-06-18 05:36:00,
2013-06-18 01:38:00,66.9,48.0,29.86,NNW,336,7.1,7.1,51,0.00,,,0.00,VWS V14.01,2013-06-18 05:38:00,
2013-06-18 01:39:00,66.7,48.2,29.87,WNW,296,2.8,2.8,51,0.00,,,0.00,VWS V14.01,2013-06-18 05:39:00,
2013-06-18 01:41:00,66.5,48.6,29.86,NNW,348,6.1,6.1,53,0.00,,,0.00,VWS V14.01,2013-06-18 05:41:00,
2013-06-18 01:42:00,66.2,48.9,29.87,NW,319,1.6,6.1,53,0.00,,,0.00,VWS V14.01,2013-06-18 05:42:00,
2013-06-18 01:43:00,66.7,49.0,29.87,NNE,14,5.7,7.1,53,0.00,,,0.00,VWS V14.01,2013-06-18 05:43:00,
2013-06-18 01:46:00,66.6,49.2,29.86,NE,42,4.7,4.7,54,0.00,,,0.00,VWS V14.01,2013-06-18 05:46:00,
2013-06-18 01:47:00,66.4,49.1,29.86,NW,326,2.5,4.5,54,0.00,,,0.00,VWS V14.01,2013-06-18 05:47:00,
2013-06-18 01:48:00,66.1,49.6,29.86,NW,310,3.7,6.1,55,0.00,,,0.00,VWS V14.01,2013-06-18 05:48:00,
2013-06-18 01:51:00,66.2,50.0,29.86,NNW,331,4.0,4.0,56,0.00,,,0.00,VWS V14.01,2013-06-18 05:51:00,
2013-06-18 01:52:00,66.2,50.0,29.86,NNW,331,4.0,4.0,56,0.00,,,0.00,VWS V14.01,2013-06-18 05:52:00,
2013-06-18 01:54:00,66.1,49.9,29.86,North,0,5.7,5.7,56,0.00,,,0.00,VWS V14.01,2013-06-18 05:54:00,
2013-06-18 01:58:00,66.4,50.0,29.85,NNW,338,4.5,4.9,55,0.00,,,0.00,VWS V14.01,2013-06-18 05:58:00,
2013-06-18 01:59:00,66.3,49.8,29.86,NNW,331,4.4,4.5,55,0.00,,,0.00,VWS V14.01,2013-06-18 05:59:00,
2013-06-18 02:00:00,65.9,49.9,29.85,NW,316,0.0,1.6,56,0.00,,,0.00,VWS V14.01,2013-06-18 06:00:00,
2013-06-18 02:03:00,66.2,50.3,29.86,NE,35,3.9,3.9,56,0.00,,,0.00,VWS V14.01,2013-06-18 06:03:00,
2013-06-18 02:04:00,66.1,50.1,29.85,NE,50,2.3,2.3,56,0.00,,,0.00,VWS V14.01,2013-06-18 06:04:00,
2013-06-18 02:06:00,66.3,50.0,29.86,NNE,16,4.2,4.2,56,0.00,,,0.00,VWS V14.01,2013-06-18 06:06:00,
2013-06-18 02:09:00,65.9,50.3,29.86,NNE,26,3.2,5.1,57,0.00,,,0.00,VWS V14.01,2013-06-18 06:09:00,
2013-06-18 02:10:00,66.0,50.4,29.85,North,7,2.0,4.2,57,0.00,,,0.00,VWS V14.01,2013-06-18 06:10:00,
2013-06-18 02:11:00,66.2,50.6,29.85,NNE,14,2.8,2.8,57,0.00,,,0.00,VWS V14.01,2013-06-18 06:11:00,
2013-06-18 02:12:00,66.2,50.2,29.86,NNW,347,3.9,3.9,56,0.00,,,0.00,VWS V14.01,2013-06-18 06:12:00,
2013-06-18 02:15:00,66.1,50.2,29.86,SW,236,0.0,5.1,56,0.00,,,0.00,VWS V14.01,2013-06-18 06:15:00,
2013-06-18 02:17:00,66.0,50.5,29.85,ENE,71,2.7,4.5,57,0.00,,,0.00,VWS V14.01,2013-06-18 06:17:00,
2013-06-18 02:18:00,66.3,50.2,29.85,NE,49,5.1,5.1,56,0.00,,,0.00,VWS V14.01,2013-06-18 06:18:00,
2013-06-18 02:20:00,66.2,50.2,29.86,NE,40,3.5,4.0,56,0.00,,,0.00,VWS V14.01,2013-06-18 06:20:00,
2013-06-18 02:21:00,66.3,50.3,29.86,NE,55,1.5,3.0,56,0.00,,,0.00,VWS V14.01,2013-06-18 06:21:00,
2013-06-18 02:22:00,66.4,50.1,29.86,NE,46,1.6,3.7,56,0.00,,,0.00,VWS V14.01,2013-06-18 06:22:00,
2013-06-18 02:23:00,66.5,50.1,29.86,NE,48,4.7,4.7,56,0.00,,,0.00,VWS V14.01,2013-06-18 06:23:00,
2013-06-18 02:24:00,66.5,49.6,29.86,NNE,28,6.4,6.4,54,0.00,,,0.00,VWS V14.01,2013-06-18 06:24:00,
2013-06-18 02:26:00,66.4,49.5,29.85,ENE,61,4.2,5.6,54,0.00,,,0.00,VWS V14.01,2013-06-18 06:26:00,
2013-06-18 02:28:00,66.6,49.5,29.85,NNE,33,5.9,5.9,54,0.00,,,0.00,VWS V14.01,2013-06-18 06:28:00,
2013-06-18 02:29:00,67.0,49.1,29.85,NNE,24,7.5,7.5,53,0.00,,,0.00,VWS V14.01,2013-06-18 06:29:00,
2013-06-18 02:30:00,66.8,48.9,29.84,NE,47,4.0,7.5,52,0.00,,,0.00,VWS V14.01,2013-06-18 06:30:00,
2013-06-18 02:32:00,66.6,49.2,29.85,NE,53,4.4,6.3,53,0.00,,,0.00,VWS V14.01,2013-06-18 06:32:00,
2013-06-18 02:34:00,66.5,49.7,29.84,ENE,69,3.0,3.9,55,0.00,,,0.00,VWS V14.01,2013-06-18 06:34:00,
2013-06-18 02:35:00,67.1,49.5,29.85,NE,56,5.6,5.6,53,0.00,,,0.00,VWS V14.01,2013-06-18 06:35:00,
2013-06-18 02:37:00,67.0,47.1,29.84,NE,49,5.9,7.8,49,0.00,,,0.00,VWS V14.01,2013-06-18 06:37:00,
2013-06-18 02:38:00,66.9,49.3,29.85,ENE,62,5.7,7.8,53,0.00,,,0.00,VWS V14.01,2013-06-18 06:38:00,
2013-06-18 02:40:00,66.7,49.1,29.85,ENE,62,5.2,5.2,53,0.00,,,0.00,VWS V14.01,2013-06-18 06:40:00,
2013-06-18 02:41:00,66.3,49.2,29.85,ENE,65,4.2,5.2,54,0.00,,,0.00,VWS V14.01,2013-06-18 06:41:00,
2013-06-18 02:43:00,66.8,49.7,29.85,East,91,4.4,4.4,54,0.00,,,0.00,VWS V14.01,2013-06-18 06:43:00,
2013-06-18 02:45:00,66.3,49.5,29.85,East,82,7.8,7.8,55,0.00,,,0.00,VWS V14.01,2013-06-18 06:45:00,
2013-06-18 02:46:00,66.1,49.7,29.84,East,82,6.3,8.0,55,0.00,,,0.00,VWS V14.01,2013-06-18 06:46:00,
2013-06-18 02:47:00,66.1,49.7,29.84,East,82,6.3,8.0,55,0.00,,,0.00,VWS V14.01,2013-06-18 06:47:00,
2013-06-18 02:48:00,66.0,49.9,29.84,NE,56,5.6,6.1,56,0.00,,,0.00,VWS V14.01,2013-06-18 06:48:00,
2013-06-18 02:50:00,66.2,50.2,29.84,NE,55,4.5,4.5,56,0.00,,,0.00,VWS V14.01,2013-06-18 06:50:00,
2013-06-18 02:51:00,66.1,50.3,29.85,ENE,65,4.2,4.5,57,0.00,,,0.00,VWS V14.01,2013-06-18 06:51:00,
2013-06-18 02:52:00,66.2,50.4,29.84,ENE,65,4.5,5.4,57,0.00,,,0.00,VWS V14.01,2013-06-18 06:52:00,
2013-06-18 02:53:00,66.0,50.5,29.84,ENE,77,4.4,4.5,57,0.00,,,0.00,VWS V14.01,2013-06-18 06:53:00,
2013-06-18 02:55:00,65.7,51.1,29.85,ENE,59,4.4,6.6,59,0.00,,,0.00,VWS V14.01,2013-06-18 06:55:00,
2013-06-18 02:57:00,66.0,51.2,29.85,East,79,7.1,7.1,59,0.00,,,0.00,VWS V14.01,2013-06-18 06:57:00,
2013-06-18 02:59:00,65.8,51.2,29.85,East,96,6.3,6.3,59,0.00,,,0.00,VWS V14.01,2013-06-18 06:59:00,
2013-06-18 03:00:00,65.9,51.3,29.84,East,99,6.4,7.6,59,0.00,,,0.00,VWS V14.01,2013-06-18 07:00:00,
2013-06-18 03:01:00,66.0,51.5,29.84,East,89,4.9,6.4,60,0.00,,,0.00,VWS V14.01,2013-06-18 07:01:00,
2013-06-18 03:03:00,65.9,51.9,29.84,ESE,111,4.9,6.4,60,0.00,,,0.00,VWS V14.01,2013-06-18 07:03:00,
2013-06-18 03:04:00,65.9,51.9,29.84,ESE,111,4.9,6.4,60,0.00,,,0.00,VWS V14.01,2013-06-18 07:04:00,
2013-06-18 03:05:00,65.9,52.0,29.84,East,87,6.8,6.8,61,0.00,,,0.00,VWS V14.01,2013-06-18 07:05:00,
2013-06-18 03:06:00,65.8,52.0,29.85,ENE,70,4.4,6.8,61,0.00,,,0.00,VWS V14.01,2013-06-18 07:06:00,
2013-06-18 03:07:00,65.6,52.0,29.85,ENE,74,7.5,7.5,61,0.00,,,0.00,VWS V14.01,2013-06-18 07:07:00,
2013-06-18 03:08:00,65.7,52.5,29.84,ENE,78,5.2,7.5,62,0.00,,,0.00,VWS V14.01,2013-06-18 07:08:00,
2013-06-18 03:09:00,65.9,52.4,29.85,NE,50,8.1,8.1,62,0.00,,,0.00,VWS V14.01,2013-06-18 07:09:00,
2013-06-18 03:11:00,65.8,52.4,29.85,East,88,6.1,8.1,62,0.00,,,0.00,VWS V14.01,2013-06-18 07:11:00,
2013-06-18 03:12:00,65.8,52.4,29.85,East,88,6.1,8.1,62,0.00,,,0.00,VWS V14.01,2013-06-18 07:12:00,
2013-06-18 03:14:00,65.6,52.7,29.84,ENE,66,5.4,8.1,63,0.00,,,0.00,VWS V14.01,2013-06-18 07:14:00,
2013-06-18 03:16:00,65.7,52.8,29.83,East,79,5.7,8.1,63,0.00,,,0.00,VWS V14.01,2013-06-18 07:16:00,
2013-06-18 03:18:00,65.4,53.2,29.85,East,95,5.6,8.1,65,0.00,,,0.00,VWS V14.01,2013-06-18 07:18:00,
2013-06-18 03:20:00,65.3,53.3,29.84,ESE,109,7.3,8.1,65,0.00,,,0.00,VWS V14.01,2013-06-18 07:20:00,
2013-06-18 03:22:00,65.1,53.7,29.84,East,89,7.5,8.1,66,0.00,,,0.00,VWS V14.01,2013-06-18 07:22:00,
2013-06-18 03:23:00,65.3,54.0,29.83,ESE,113,8.5,8.5,67,0.00,,,0.00,VWS V14.01,2013-06-18 07:23:00,
2013-06-18 03:24:00,65.3,53.9,29.84,East,101,8.7,8.7,67,0.00,,,0.00,VWS V14.01,2013-06-18 07:24:00,
2013-06-18 03:25:00,65.4,54.3,29.84,ESE,109,6.9,8.7,67,0.00,,,0.00,VWS V14.01,2013-06-18 07:25:00,
2013-06-18 03:26:00,65.1,54.2,29.87,ESE,109,5.1,8.7,68,0.00,,,0.00,VWS V14.01,2013-06-18 07:26:00,
2013-06-18 03:28:00,65.2,54.6,29.84,ESE,109,4.5,8.7,69,0.00,,,0.00,VWS V14.01,2013-06-18 07:28:00,
2013-06-18 03:29:00,65.2,54.8,29.84,ESE,102,5.4,8.7,69,0.00,,,0.00,VWS V14.01,2013-06-18 07:29:00,
2013-06-18 03:30:00,65.2,54.9,29.84,ESE,103,5.2,8.7,69,0.00,,,0.00,VWS V14.01,2013-06-18 07:30:00,
2013-06-18 03:33:00,64.9,55.2,29.85,East,91,2.8,8.7,71,0.00,,,0.00,VWS V14.01,2013-06-18 07:33:00,
2013-06-18 03:35:00,64.8,55.5,29.84,East,95,3.2,8.7,72,0.00,,,0.00,VWS V14.01,2013-06-18 07:35:00,
2013-06-18 03:36:00,64.9,55.8,29.85,East,87,3.5,8.7,72,0.00,,,0.00,VWS V14.01,2013-06-18 07:36:00,
2013-06-18 03:37:00,64.9,55.8,29.85,East,87,3.5,8.7,72,0.00,,,0.00,VWS V14.01,2013-06-18 07:37:00,
2013-06-18 03:38:00,64.8,56.1,29.85,ESE,116,3.5,8.7,73,0.00,,,0.00,VWS V14.01,2013-06-18 07:38:00,
2013-06-18 03:41:00,64.7,56.5,29.85,ESE,102,4.2,8.7,75,0.00,,,0.00,VWS V14.01,2013-06-18 07:41:00,
2013-06-18 03:44:00,64.9,57.4,29.84,ENE,58,4.9,8.7,77,0.00,,,0.00,VWS V14.01,2013-06-18 07:44:00,
2013-06-18 03:46:00,64.8,57.4,29.85,East,93,4.7,8.7,77,0.00,,,0.00,VWS V14.01,2013-06-18 07:46:00,
2013-06-18 03:47:00,64.8,57.6,29.84,ENE,61,3.5,8.7,77,0.00,,,0.00,VWS V14.01,2013-06-18 07:47:00,
2013-06-18 03:48:00,64.7,57.6,29.85,ENE,58,4.0,8.7,78,0.00,,,0.00,VWS V14.01,2013-06-18 07:48:00,
2013-06-18 03:49:00,64.8,57.8,29.85,East,88,3.7,8.7,78,0.00,,,0.00,VWS V14.01,2013-06-18 07:49:00,
2013-06-18 03:52:00,64.7,57.9,29.84,East,99,2.8,8.7,79,0.00,,,0.00,VWS V14.01,2013-06-18 07:52:00,
2013-06-18 03:53:00,64.5,58.0,29.84,East,101,3.4,8.7,79,0.00,,,0.00,VWS V14.01,2013-06-18 07:53:00,
2013-06-18 03:54:00,64.7,58.2,29.85,East,94,4.7,8.7,80,0.00,,,0.00,VWS V14.01,2013-06-18 07:54:00,
2013-06-18 03:58:00,64.7,58.5,29.84,ESE,118,5.9,8.7,80,0.00,,,0.00,VWS V14.01,2013-06-18 07:58:00,
2013-06-18 03:59:00,64.5,58.3,29.85,East,92,4.9,8.7,80,0.00,,,0.00,VWS V14.01,2013-06-18 07:59:00,
2013-06-18 04:00:00,64.5,58.6,29.85,ESE,108,3.2,8.7,81,0.00,,,0.00,VWS V14.01,2013-06-18 08:00:00,
2013-06-18 04:04:00,64.6,58.6,29.84,NE,46,2.8,3.5,81,0.00,,,0.00,VWS V14.01,2013-06-18 08:04:00,
2013-06-18 04:05:00,64.4,58.6,29.86,ENE,74,2.5,2.8,81,0.00,,,0.00,VWS V14.01,2013-06-18 08:05:00,
2013-06-18 04:06:00,64.5,58.7,29.85,ENE,66,4.7,4.7,82,0.00,,,0.00,VWS V14.01,2013-06-18 08:06:00,
2013-06-18 04:10:00,64.6,58.8,29.86,NE,39,4.4,4.9,81,0.00,,,0.00,VWS V14.01,2013-06-18 08:10:00,
2013-06-18 04:11:00,64.5,58.6,29.85,NE,38,3.2,4.9,81,0.00,,,0.00,VWS V14.01,2013-06-18 08:11:00,
2013-06-18 04:15:00,64.3,58.7,29.87,NNE,33,3.4,3.4,82,0.00,,,0.00,VWS V14.01,2013-06-18 08:15:00,
2013-06-18 04:16:00,64.2,58.6,29.85,NNE,18,2.8,3.4,82,0.00,,,0.00,VWS V14.01,2013-06-18 08:16:00,
2013-06-18 04:17:00,64.3,58.7,29.85,NNE,25,2.5,2.8,82,0.00,,,0.00,VWS V14.01,2013-06-18 08:17:00,
2013-06-18 04:18:00,64.3,58.8,29.86,NNE,28,3.0,3.0,82,0.00,,,0.00,VWS V14.01,2013-06-18 08:18:00,
2013-06-18 04:21:00,64.1,58.8,29.86,NE,42,2.8,2.8,83,0.00,,,0.00,VWS V14.01,2013-06-18 08:21:00,
2013-06-18 04:22:00,64.3,59.2,29.86,NE,45,2.5,2.8,83,0.00,,,0.00,VWS V14.01,2013-06-18 08:22:00,
2013-06-18 04:23:00,64.1,59.1,29.86,ENE,59,2.5,3.2,84,0.00,,,0.00,VWS V14.01,2013-06-18 08:23:00,
2013-06-18 04:27:00,64.3,59.4,29.86,ENE,57,2.7,3.7,84,0.00,,,0.00,VWS V14.01,2013-06-18 08:27:00,
2013-06-18 04:28:00,64.0,59.1,29.86,ENE,72,3.0,3.0,84,0.00,,,0.00,VWS V14.01,2013-06-18 08:28:00,
2013-06-18 04:29:00,63.9,59.0,29.85,ENE,73,2.2,3.2,84,0.00,,,0.00,VWS V14.01,2013-06-18 08:29:00,
2013-06-18 04:30:00,63.9,59.2,29.85,NE,51,2.7,2.7,85,0.00,,,0.00,VWS V14.01,2013-06-18 08:30:00,
2013-06-18 04:33:00,63.9,59.3,29.86,NE,55,1.8,2.7,85,0.00,,,0.00,VWS V14.01,2013-06-18 08:33:00,
2013-06-18 04:34:00,64.1,59.6,29.86,ENE,62,3.4,3.4,85,0.00,,,0.00,VWS V14.01,2013-06-18 08:34:00,
2013-06-18 04:36:00,63.9,59.4,29.85,ENE,69,3.2,3.2,85,0.00,,,0.00,VWS V14.01,2013-06-18 08:36:00,
2013-06-18 04:38:00,63.7,59.2,29.86,ENE,69,0.0,2.0,85,0.00,,,0.00,VWS V14.01,2013-06-18 08:38:00,
2013-06-18 04:39:00,63.7,59.4,29.86,ENE,69,0.0,2.0,86,0.00,,,0.00,VWS V14.01,2013-06-18 08:39:00,
2013-06-18 04:40:00,63.7,59.4,29.86,ENE,69,0.0,0.0,86,0.00,,,0.00,VWS V14.01,2013-06-18 08:40:00,
2013-06-18 04:42:00,63.9,59.6,29.86,ENE,69,1.0,1.0,86,0.00,,,0.00,VWS V14.01,2013-06-18 08:42:00,
2013-06-18 04:44:00,63.8,59.6,29.86,ENE,69,0.0,0.0,86,0.00,,,0.00,VWS V14.01,2013-06-18 08:44:00,
2013-06-18 04:45:00,63.8,59.5,29.86,ENE,69,0.0,0.0,86,0.00,,,0.00,VWS V14.01,2013-06-18 08:45:00,
2013-06-18 04:46:00,63.8,59.5,29.86,ENE,69,0.0,0.0,86,0.00,,,0.00,VWS V14.01,2013-06-18 08:46:00,
2013-06-18 04:50:00,63.5,59.5,29.86,ENE,69,0.0,0.0,87,0.00,,,0.00,VWS V14.01,2013-06-18 08:50:00,
2013-06-18 04:51:00,63.6,59.6,29.86,ENE,69,0.0,0.0,87,0.00,,,0.00,VWS V14.01,2013-06-18 08:51:00,
2013-06-18 04:52:00,63.6,59.7,29.87,ENE,69,0.0,0.0,87,0.00,,,0.00,VWS V14.01,2013-06-18 08:52:00,
2013-06-18 04:53:00,63.5,59.6,29.86,ENE,69,0.0,0.0,87,0.00,,,0.00,VWS V14.01,2013-06-18 08:53:00,
2013-06-18 04:55:00,63.6,60.0,29.86,ENE,69,0.0,0.0,88,0.00,,,0.00,VWS V14.01,2013-06-18 08:55:00,
2013-06-18 04:56:00,63.6,60.0,29.86,ENE,69,0.0,0.0,88,0.00,,,0.00,VWS V14.01,2013-06-18 08:56:00,
2013-06-18 04:57:00,63.5,59.9,29.87,ENE,69,0.0,0.0,88,0.00,,,0.00,VWS V14.01,2013-06-18 08:57:00,
2013-06-18 04:59:00,63.4,60.0,29.85,ENE,69,2.0,2.0,89,0.00,,,0.00,VWS V14.01,2013-06-18 08:59:00,
2013-06-18 05:01:00,63.2,60.1,29.86,ENE,69,1.5,2.2,89,0.00,,,0.83,VWS V14.01,2013-06-18 09:01:00,
2013-06-18 05:02:00,63.3,60.1,29.86,ENE,69,0.0,1.5,89,0.00,,,0.00,VWS V14.01,2013-06-18 09:02:00,
2013-06-18 05:07:00,63.5,60.5,29.86,ENE,69,0.0,0.0,90,0.00,,,0.00,VWS V14.01,2013-06-18 09:07:00,
2013-06-18 05:08:00,63.4,60.4,29.86,ENE,69,0.0,0.0,90,0.00,,,0.00,VWS V14.01,2013-06-18 09:08:00,
2013-06-18 05:09:00,63.3,60.3,29.86,ENE,69,0.0,0.0,90,0.00,,,0.00,VWS V14.01,2013-06-18 09:09:00,
2013-06-18 05:14:00,63.5,59.4,29.86,ENE,69,0.0,0.0,86,0.00,,,0.00,VWS V14.01,2013-06-18 09:14:00,
2013-06-18 05:16:00,63.5,60.5,29.86,ENE,69,0.0,0.0,90,0.00,,,0.00,VWS V14.01,2013-06-18 09:16:00,
2013-06-18 05:19:00,63.7,60.6,29.86,ENE,59,2.0,2.0,90,0.00,,,0.00,VWS V14.01,2013-06-18 09:19:00,
2013-06-18 05:20:00,63.6,60.4,29.86,ENE,59,1.6,2.0,89,0.00,,,0.00,VWS V14.01,2013-06-18 09:20:00,
2013-06-18 05:24:00,63.6,60.4,29.86,NNE,25,3.2,3.2,89,0.00,,,0.00,VWS V14.01,2013-06-18 09:24:00,
2013-06-18 05:25:00,63.6,59.3,29.86,NE,56,3.2,3.2,86,0.00,,,0.00,VWS V14.01,2013-06-18 09:25:00,
2013-06-18 05:26:00,63.6,60.1,29.86,NE,52,3.0,3.2,89,0.00,,,0.00,VWS V14.01,2013-06-18 09:26:00,
2013-06-18 05:29:00,63.6,60.0,29.86,NE,34,4.9,4.9,88,0.00,,,0.00,VWS V14.01,2013-06-18 09:29:00,
2013-06-18 05:31:00,63.4,59.8,29.86,North,8,4.0,4.7,88,0.00,,,0.00,VWS V14.01,2013-06-18 09:31:00,
2013-06-18 05:32:00,63.6,60.1,29.87,NNE,26,4.2,4.2,88,0.00,,,0.00,VWS V14.01,2013-06-18 09:32:00,
2013-06-18 05:33:00,63.6,60.1,29.87,NE,39,3.7,4.2,89,0.00,,,0.00,VWS V14.01,2013-06-18 09:33:00,
2013-06-18 05:35:00,63.5,60.2,29.87,NNE,29,0.0,3.9,89,0.00,,,0.00,VWS V14.01,2013-06-18 09:35:00,
2013-06-18 05:36:00,63.3,60.1,29.88,NNE,30,2.8,2.8,89,0.00,,,0.00,VWS V14.01,2013-06-18 09:36:00,
2013-06-18 05:38:00,63.2,60.1,29.88,NE,55,4.9,4.9,90,0.00,,,0.00,VWS V14.01,2013-06-18 09:38:00,
2013-06-18 05:39:00,63.3,60.3,29.88,NE,40,5.1,5.1,90,0.00,,,0.00,VWS V14.01,2013-06-18 09:39:00,
2013-06-18 05:40:00,63.3,60.2,29.88,NE,38,0.0,0.0,90,0.00,,,0.00,VWS V14.01,2013-06-18 09:40:00,
2013-06-18 05:41:00,63.6,60.5,29.87,ENE,57,3.7,3.7,90,0.00,,,0.00,VWS V14.01,2013-06-18 09:41:00,
2013-06-18 05:45:00,63.2,60.1,29.87,NE,56,2.5,2.5,89,0.00,,,0.00,VWS V14.01,2013-06-18 09:45:00,
2013-06-18 05:46:00,63.1,60.1,29.88,ENE,57,2.7,4.2,90,0.00,,,0.00,VWS V14.01,2013-06-18 09:46:00,
2013-06-18 05:47:00,63.3,60.2,29.88,ENE,65,3.9,4.0,90,0.00,,,0.00,VWS V14.01,2013-06-18 09:47:00,
2013-06-18 05:50:00,63.2,60.3,29.89,NE,51,3.9,3.9,90,0.00,,,0.00,VWS V14.01,2013-06-18 09:50:00,
2013-06-18 05:51:00,63.0,60.2,29.88,NE,45,2.7,3.9,90,0.00,,,0.00,VWS V14.01,2013-06-18 09:51:00,
2013-06-18 05:52:00,62.8,60.1,29.88,NE,45,2.3,2.7,91,0.00,,,0.00,VWS V14.01,2013-06-18 09:52:00,
2013-06-18 05:55:00,62.9,60.3,29.88,ENE,58,3.0,3.0,91,0.00,,,0.00,VWS V14.01,2013-06-18 09:55:00,
2013-06-18 05:56:00,63.0,60.4,29.89,ENE,67,2.8,4.0,91,0.00,,,0.00,VWS V14.01,2013-06-18 09:56:00,
2013-06-18 05:57:00,63.1,60.5,29.89,ENE,67,3.2,3.2,91,0.00,,,0.00,VWS V14.01,2013-06-18 09:57:00,
2013-06-18 05:58:00,63.1,60.5,29.89,ENE,67,3.2,3.2,91,0.00,,,0.00,VWS V14.01,2013-06-18 09:58:00,
2013-06-18 06:02:00,62.9,60.4,29.89,NE,53,2.5,2.5,91,0.00,,,0.00,VWS V14.01,2013-06-18 10:02:00,
2013-06-18 06:03:00,62.8,60.3,29.89,NE,53,0.0,2.5,92,0.00,,,0.00,VWS V14.01,2013-06-18 10:03:00,
2013-06-18 06:04:00,62.8,60.3,29.89,NE,41,2.3,2.3,92,0.00,,,0.00,VWS V14.01,2013-06-18 10:04:00,
2013-06-18 06:06:00,62.9,60.5,29.89,NNE,24,2.8,3.0,92,0.00,,,0.00,VWS V14.01,2013-06-18 10:06:00,
2013-06-18 06:08:00,63.0,60.6,29.90,NNE,29,3.0,4.4,92,0.00,,,0.00,VWS V14.01,2013-06-18 10:08:00,
2013-06-18 06:09:00,62.5,60.2,29.89,NNE,28,0.0,1.3,92,0.00,,,0.00,VWS V14.01,2013-06-18 10:09:00,
2013-06-18 06:12:00,63.0,61.0,29.92,NNE,29,3.2,3.2,93,0.00,,,0.00,VWS V14.01,2013-06-18 10:12:00,
2013-06-18 06:13:00,62.8,60.8,29.89,NE,36,1.5,3.2,93,0.00,,,0.00,VWS V14.01,2013-06-18 10:13:00,
2013-06-18 06:14:00,63.0,61.1,29.90,NE,41,2.8,2.8,93,0.00,,,0.00,VWS V14.01,2013-06-18 10:14:00,
2013-06-18 06:16:00,62.5,60.5,29.90,NNE,15,0.0,0.0,93,0.00,,,0.00,VWS V14.01,2013-06-18 10:16:00,
2013-06-18 06:17:00,62.7,60.8,29.90,NNE,15,0.0,0.0,93,0.00,,,0.00,VWS V14.01,2013-06-18 10:17:00,
2013-06-18 06:18:00,63.0,61.1,29.90,NE,35,2.2,2.2,94,0.00,,,0.00,VWS V14.01,2013-06-18 10:18:00,
2013-06-18 06:20:00,62.9,61.0,29.88,NNE,22,2.2,2.7,94,0.00,,,0.00,VWS V14.01,2013-06-18 10:20:00,
2013-06-18 06:22:00,62.7,60.9,29.89,NE,34,2.7,2.8,94,0.00,,,0.00,VWS V14.01,2013-06-18 10:22:00,
2013-06-18 06:23:00,62.8,61.0,29.89,NE,41,2.7,2.7,94,0.00,,,0.00,VWS V14.01,2013-06-18 10:23:00,
2013-06-18 06:24:00,62.7,60.9,29.90,NE,39,3.2,3.2,94,0.00,,,0.00,VWS V14.01,2013-06-18 10:24:00,
2013-06-18 06:27:00,62.6,60.8,29.89,NE,54,1.1,2.8,94,0.00,,,0.00,VWS V14.01,2013-06-18 10:27:00,
2013-06-18 06:28:00,62.7,60.9,29.90,NE,54,2.0,3.5,94,0.00,,,0.00,VWS V14.01,2013-06-18 10:28:00,
2013-06-18 06:31:00,62.9,61.0,29.89,NE,37,3.0,3.0,93,0.00,,,0.00,VWS V14.01,2013-06-18 10:31:00,
2013-06-18 06:33:00,62.6,60.6,29.89,NE,50,2.8,3.5,93,0.00,,,0.00,VWS V14.01,2013-06-18 10:33:00,
2013-06-18 06:34:00,62.6,60.6,29.90,NE,40,2.3,2.8,93,0.00,,,0.00,VWS V14.01,2013-06-18 10:34:00,
2013-06-18 06:35:00,62.5,59.2,29.90,NE,42,2.8,3.4,89,0.00,,,0.00,VWS V14.01,2013-06-18 10:35:00,
2013-06-18 06:37:00,62.8,61.0,29.90,ENE,63,3.9,3.9,94,0.00,,,0.00,VWS V14.01,2013-06-18 10:37:00,
2013-06-18 06:39:00,62.6,60.8,29.90,NE,50,3.7,3.9,94,0.00,,,0.00,VWS V14.01,2013-06-18 10:39:00,
2013-06-18 06:41:00,62.6,60.8,29.90,NE,53,3.7,3.7,94,0.00,,,0.00,VWS V14.01,2013-06-18 10:41:00,
2013-06-18 06:42:00,62.6,60.8,29.90,NNE,27,4.2,4.2,94,0.00,,,0.00,VWS V14.01,2013-06-18 10:42:00,
2013-06-18 06:44:00,62.9,60.9,29.90,NNE,14,4.0,4.4,93,0.00,,,0.00,VWS V14.01,2013-06-18 10:44:00,
2013-06-18 06:45:00,62.9,60.9,29.90,NNE,14,4.0,4.4,93,0.00,,,0.00,VWS V14.01,2013-06-18 10:45:00,
2013-06-18 06:46:00,62.6,60.5,29.90,NE,45,3.7,3.7,93,0.00,,,0.00,VWS V14.01,2013-06-18 10:46:00,
2013-06-18 06:48:00,62.8,60.8,29.91,NE,42,4.7,4.7,93,0.00,,,0.00,VWS V14.01,2013-06-18 10:48:00,
2013-06-18 06:50:00,62.7,60.7,29.90,ENE,71,4.4,4.4,93,0.00,,,0.00,VWS V14.01,2013-06-18 10:50:00,
2013-06-18 06:51:00,62.7,60.6,29.89,ENE,71,4.0,4.0,93,0.00,,,0.00,VWS V14.01,2013-06-18 10:51:00,
2013-06-18 06:53:00,62.9,60.7,29.90,ESE,107,4.9,4.9,93,0.00,,,0.00,VWS V14.01,2013-06-18 10:53:00,
2013-06-18 06:55:00,62.9,60.3,29.90,NE,56,4.4,5.7,91,0.00,,,0.00,VWS V14.01,2013-06-18 10:55:00,
2013-06-18 06:57:00,62.9,60.2,29.91,East,80,4.2,4.2,91,0.00,,,0.00,VWS V14.01,2013-06-18 10:57:00,
2013-06-18 06:58:00,62.9,58.8,29.91,East,82,4.5,4.5,87,0.00,,,0.00,VWS V14.01,2013-06-18 10:58:00,
2013-06-18 07:01:00,63.0,60.1,29.90,NE,51,2.2,3.2,90,0.00,,,0.00,VWS V14.01,2013-06-18 11:01:00,
2013-06-18 07:03:00,63.0,59.8,29.91,ENE,67,3.5,3.7,89,0.00,,,0.00,VWS V14.01,2013-06-18 11:03:00,
2013-06-18 07:04:00,63.0,58.4,29.91,ENE,63,3.0,3.5,85,0.00,,,0.00,VWS V14.01,2013-06-18 11:04:00,
2013-06-18 07:05:00,63.1,60.0,29.92,ENE,68,2.0,3.0,90,0.00,,,0.00,VWS V14.01,2013-06-18 11:05:00,
2013-06-18 07:06:00,63.1,60.0,29.92,ENE,68,2.0,3.0,90,0.00,,,0.00,VWS V14.01,2013-06-18 11:06:00,
2013-06-18 07:07:00,63.4,60.2,29.92,NE,53,2.7,2.8,89,0.00,,,0.00,VWS V14.01,2013-06-18 11:07:00,
2013-06-18 07:08:00,63.9,60.3,29.92,NNE,16,2.2,2.7,88,0.00,,,0.00,VWS V14.01,2013-06-18 11:08:00,
2013-06-18 07:10:00,64.0,60.1,29.91,NNE,13,3.2,3.2,87,0.00,,,0.00,VWS V14.01,2013-06-18 11:10:00,
2013-06-18 07:11:00,64.0,59.6,29.91,NNE,33,3.4,3.4,86,0.00,,,0.00,VWS V14.01,2013-06-18 11:11:00,
2013-06-18 07:12:00,63.8,59.4,29.91,NNE,33,2.7,3.4,85,0.00,,,0.00,VWS V14.01,2013-06-18 11:12:00,
2013-06-18 07:13:00,63.7,58.9,29.92,NE,53,4.5,4.7,84,0.00,,,0.00,VWS V14.01,2013-06-18 11:13:00,
2013-06-18 07:15:00,65.0,60.5,29.92,NNE,17,0.0,2.8,85,0.00,,,0.00,VWS V14.01,2013-06-18 11:15:00,
2013-06-18 07:16:00,64.4,59.7,29.91,NW,319,1.1,1.1,85,0.00,,,0.00,VWS V14.01,2013-06-18 11:16:00,
2013-06-18 07:18:00,64.0,58.1,29.92,NW,320,3.5,4.7,81,0.00,,,0.00,VWS V14.01,2013-06-18 11:18:00,
2013-06-18 07:20:00,64.2,59.9,29.92,North,351,2.8,2.8,86,0.00,,,0.00,VWS V14.01,2013-06-18 11:20:00,
2013-06-18 07:22:00,63.6,58.8,29.92,NW,317,4.9,4.9,84,0.00,,,0.00,VWS V14.01,2013-06-18 11:22:00,
2013-06-18 07:24:00,64.6,60.5,29.92,NW,316,0.0,1.1,87,0.00,,,0.00,VWS V14.01,2013-06-18 11:24:00,
2013-06-18 07:27:00,63.7,58.8,29.92,NE,34,2.7,3.7,84,0.00,,,0.00,VWS V14.01,2013-06-18 11:27:00,
2013-06-18 07:29:00,63.7,59.1,29.91,NE,47,4.4,4.4,85,0.00,,,0.00,VWS V14.01,2013-06-18 11:29:00,
2013-06-18 07:30:00,63.6,59.0,29.91,NE,42,3.4,4.4,85,0.00,,,0.00,VWS V14.01,2013-06-18 11:30:00,
2013-06-18 07:32:00,63.7,59.2,29.91,NNE,33,3.5,4.7,85,0.00,,,0.00,VWS V14.01,2013-06-18 11:32:00,
2013-06-18 07:35:00,64.2,60.0,29.91,NNE,20,2.7,3.2,86,0.00,,,0.00,VWS V14.01,2013-06-18 11:35:00,
2013-06-18 07:36:00,64.1,59.7,29.91,NNW,337,3.2,3.2,86,0.00,,,0.00,VWS V14.01,2013-06-18 11:36:00,
2013-06-18 07:37:00,63.9,59.5,29.93,NE,48,2.7,2.7,86,0.00,,,0.00,VWS V14.01,2013-06-18 11:37:00,
2013-06-18 07:39:00,63.8,59.2,29.91,NE,36,2.3,4.7,85,0.00,,,0.00,VWS V14.01,2013-06-18 11:39:00,
2013-06-18 07:40:00,63.9,59.5,29.91,NE,49,3.4,4.2,86,0.00,,,0.00,VWS V14.01,2013-06-18 11:40:00,
2013-06-18 07:42:00,63.7,59.4,29.91,NE,48,3.2,6.1,86,0.00,,,0.00,VWS V14.01,2013-06-18 11:42:00,
2013-06-18 07:43:00,63.7,59.2,29.91,NE,52,6.1,6.1,85,0.00,,,0.00,VWS V14.01,2013-06-18 11:43:00,
2013-06-18 07:44:00,63.9,59.7,29.90,NE,53,4.7,4.7,86,0.00,,,0.00,VWS V14.01,2013-06-18 11:44:00,
2013-06-18 07:45:00,63.6,59.4,29.91,NE,50,5.6,5.6,86,0.00,,,0.00,VWS V14.01,2013-06-18 11:45:00,
2013-06-18 07:47:00,63.7,59.6,29.91,ENE,65,6.3,6.3,87,0.00,,,0.00,VWS V14.01,2013-06-18 11:47:00,
2013-06-18 07:50:00,63.5,59.5,29.91,NE,44,4.9,5.4,87,0.00,,,0.00,VWS V14.01,2013-06-18 11:50:00,
2013-06-18 07:51:00,63.7,58.3,29.91,NE,46,6.1,6.3,82,0.00,,,0.00,VWS V14.01,2013-06-18 11:51:00,
2013-06-18 07:52:00,63.6,59.6,29.92,NE,51,4.5,4.9,87,0.00,,,0.00,VWS V14.01,2013-06-18 11:52:00,
2013-06-18 07:55:00,63.6,59.9,29.91,NE,46,4.5,7.1,88,0.00,,,0.00,VWS V14.01,2013-06-18 11:55:00,
2013-06-18 07:56:00,63.4,59.6,29.90,NE,44,7.5,8.3,88,0.00,,,0.00,VWS V14.01,2013-06-18 11:56:00,
2013-06-18 07:57:00,63.5,59.8,29.91,NE,38,7.3,7.6,88,0.00,,,0.00,VWS V14.01,2013-06-18 11:57:00,
2013-06-18 08:00:00,63.5,59.8,29.92,NE,53,5.6,6.3,88,0.00,,,0.00,VWS V14.01,2013-06-18 12:00:00,
2013-06-18 08:02:00,63.3,59.6,29.91,NE,36,6.9,6.9,88,0.00,,,0.00,VWS V14.01,2013-06-18 12:02:00,
2013-06-18 08:03:00,63.4,59.6,29.91,NE,49,5.1,8.7,87,0.00,,,0.00,VWS V14.01,2013-06-18 12:03:00,
2013-06-18 08:07:00,63.5,59.9,29.91,ENE,57,5.7,6.1,88,0.00,,,0.00,VWS V14.01,2013-06-18 12:07:00,
2013-06-18 08:08:00,63.5,59.9,29.91,NE,45,4.7,5.7,88,0.00,,,0.00,VWS V14.01,2013-06-18 12:08:00,
2013-06-18 08:09:00,63.0,59.2,29.92,NNE,31,7.3,7.3,87,0.00,,,0.00,VWS V14.01,2013-06-18 12:09:00,
2013-06-18 08:13:00,63.1,59.5,29.91,NNE,21,8.3,8.3,88,0.00,,,0.00,VWS V14.01,2013-06-18 12:13:00,
2013-06-18 08:14:00,63.2,59.6,29.92,NNE,27,7.6,8.3,88,0.00,,,0.00,VWS V14.01,2013-06-18 12:14:00,
2013-06-18 08:17:00,62.5,58.8,29.92,NE,41,9.9,9.9,88,0.00,,,0.00,VWS V14.01,2013-06-18 12:17:00,
2013-06-18 08:19:00,62.5,58.2,29.92,ENE,58,8.5,9.0,86,0.00,,,0.00,VWS V14.01,2013-06-18 12:19:00,
2013-06-18 08:21:00,62.4,59.0,29.92,NE,54,7.3,8.5,89,0.00,,,0.00,VWS V14.01,2013-06-18 12:21:00,
2013-06-18 08:22:00,62.0,58.6,29.92,ENE,60,13.5,13.5,89,0.00,,,0.00,VWS V14.01,2013-06-18 12:22:00,
2013-06-18 08:24:00,61.8,58.7,29.91,NE,45,10.5,10.5,90,0.00,,,0.00,VWS V14.01,2013-06-18 12:24:00,
2013-06-18 08:25:00,61.9,59.0,29.92,NE,55,6.8,10.5,90,0.00,,,0.00,VWS V14.01,2013-06-18 12:25:00,
2013-06-18 08:26:00,61.8,58.9,29.92,NE,55,9.2,9.2,90,0.00,,,0.00,VWS V14.01,2013-06-18 12:26:00,
2013-06-18 08:27:00,61.6,58.7,29.92,ENE,72,12.3,12.3,90,0.00,,,0.00,VWS V14.01,2013-06-18 12:27:00,
2013-06-18 08:30:00,61.6,58.9,29.92,NE,51,9.5,10.7,91,0.00,,,0.00,VWS V14.01,2013-06-18 12:30:00,
2013-06-18 08:31:00,61.5,58.8,29.93,NE,40,8.0,12.3,91,0.00,,,0.00,VWS V14.01,2013-06-18 12:31:00,
2013-06-18 08:32:00,61.5,59.0,29.92,NNE,25,7.6,8.0,91,0.00,,,0.00,VWS V14.01,2013-06-18 12:32:00,
2013-06-18 08:33:00,61.4,58.8,29.92,NE,56,9.3,9.3,91,0.00,,,0.00,VWS V14.01,2013-06-18 12:33:00,
2013-06-18 08:34:00,61.5,59.0,29.93,ENE,65,9.5,9.5,91,0.00,,,0.00,VWS V14.01,2013-06-18 12:34:00,
2013-06-18 08:35:00,61.2,59.0,29.93,ENE,61,5.7,8.8,92,0.00,,,0.00,VWS V14.01,2013-06-18 12:35:00,
2013-06-18 08:36:00,61.4,59.1,29.93,NE,34,6.6,6.6,92,0.00,,,0.00,VWS V14.01,2013-06-18 12:36:00,
2013-06-18 08:37:00,61.3,59.0,29.92,NE,39,7.3,10.4,92,0.00,,,0.00,VWS V14.01,2013-06-18 12:37:00,
2013-06-18 08:39:00,61.5,59.3,29.93,NE,48,3.9,4.5,92,0.00,,,0.00,VWS V14.01,2013-06-18 12:39:00,
2013-06-18 08:40:00,61.5,59.4,29.93,NE,46,4.7,4.7,93,0.00,,,0.00,VWS V14.01,2013-06-18 12:40:00,
2013-06-18 08:43:00,60.9,58.7,29.92,NNE,23,6.8,9.7,92,0.00,,,0.00,VWS V14.01,2013-06-18 12:43:00,
2013-06-18 08:44:00,60.8,58.7,29.92,NE,54,6.8,7.8,93,0.00,,,0.00,VWS V14.01,2013-06-18 12:44:00,
2013-06-18 08:45:00,60.9,58.8,29.93,NE,51,6.3,6.8,93,0.00,,,0.00,VWS V14.01,2013-06-18 12:45:00,
2013-06-18 08:46:00,60.6,58.6,29.93,NNE,21,5.6,9.7,93,0.00,,,0.00,VWS V14.01,2013-06-18 12:46:00,
2013-06-18 08:49:00,61.0,59.1,29.94,NE,47,6.3,8.8,94,0.00,,,0.00,VWS V14.01,2013-06-18 12:49:00,
2013-06-18 08:50:00,60.7,58.8,29.94,NNE,21,6.4,6.4,94,0.00,,,0.00,VWS V14.01,2013-06-18 12:50:00,
2013-06-18 08:51:00,60.6,58.7,29.93,NE,48,6.4,8.1,94,0.00,,,0.00,VWS V14.01,2013-06-18 12:51:00,
2013-06-18 08:55:00,60.6,58.8,29.93,NE,39,6.4,7.5,94,0.00,,,0.00,VWS V14.01,2013-06-18 12:55:00,
2013-06-18 08:56:00,60.6,58.9,29.93,ENE,71,7.6,7.6,94,0.00,,,0.00,VWS V14.01,2013-06-18 12:56:00,
2013-06-18 08:58:00,60.4,58.8,29.94,NE,47,8.8,8.8,94,0.00,,,0.00,VWS V14.01,2013-06-18 12:58:00,
2013-06-18 09:00:00,60.5,59.0,29.95,NNE,22,6.8,9.3,95,0.00,,,0.00,VWS V14.01,2013-06-18 13:00:00,
2013-06-18 09:01:00,60.3,58.7,29.94,NE,51,11.2,11.2,94,0.00,,,0.00,VWS V14.01,2013-06-18 13:01:00,
2013-06-18 09:03:00,60.2,58.6,29.95,NE,40,10.9,10.9,94,0.00,,,0.00,VWS V14.01,2013-06-18 13:03:00,
2013-06-18 09:04:00,60.6,58.9,29.95,NE,35,6.4,6.4,94,0.00,,,0.00,VWS V14.01,2013-06-18 13:04:00,
2013-06-18 09:06:00,60.8,59.2,29.94,NE,55,4.9,6.4,95,0.00,,,0.00,VWS V14.01,2013-06-18 13:06:00,
2013-06-18 09:07:00,60.5,58.8,29.95,NE,40,6.4,6.4,94,0.00,,,0.00,VWS V14.01,2013-06-18 13:07:00,
2013-06-18 09:11:00,60.2,58.4,29.95,NE,51,8.0,9.7,94,0.00,,,0.00,VWS V14.01,2013-06-18 13:11:00,
2013-06-18 09:12:00,60.2,58.3,29.95,NE,50,11.9,13.1,94,0.00,,,0.00,VWS V14.01,2013-06-18 13:12:00,
2013-06-18 09:17:00,60.0,58.3,29.94,NE,43,8.7,10.0,94,0.00,,,0.00,VWS V14.01,2013-06-18 13:17:00,
2013-06-18 09:18:00,60.1,57.5,29.94,NE,38,8.7,10.0,91,0.00,,,0.00,VWS V14.01,2013-06-18 13:18:00,
2013-06-18 09:22:00,60.5,59.0,29.95,NNE,28,7.5,7.8,95,0.00,,,0.00,VWS V14.01,2013-06-18 13:22:00,
2013-06-18 09:23:00,60.2,58.8,29.95,NE,45,7.6,7.6,95,0.00,,,0.00,VWS V14.01,2013-06-18 13:23:00,
2013-06-18 09:24:00,60.4,58.9,29.95,NE,51,7.3,7.6,95,0.00,,,0.00,VWS V14.01,2013-06-18 13:24:00,
2013-06-18 09:26:00,60.3,58.6,29.95,NE,46,7.5,8.7,94,0.00,,,0.00,VWS V14.01,2013-06-18 13:26:00,
2013-06-18 09:28:00,60.6,58.8,29.95,NNE,31,6.1,6.8,94,0.00,,,0.00,VWS V14.01,2013-06-18 13:28:00,
2013-06-18 09:30:00,60.7,58.5,29.95,ENE,61,5.9,7.1,93,0.00,,,0.00,VWS V14.01,2013-06-18 13:30:00,
2013-06-18 09:31:00,60.7,58.3,29.95,NE,35,6.4,6.4,92,0.00,,,0.00,VWS V14.01,2013-06-18 13:31:00,
2013-06-18 09:32:00,61.2,58.7,29.98,NE,34,6.3,6.4,92,0.00,,,0.00,VWS V14.01,2013-06-18 13:32:00,
2013-06-18 09:34:00,61.8,59.1,29.95,NE,48,2.8,9.3,91,0.00,,,0.00,VWS V14.01,2013-06-18 13:34:00,
2013-06-18 09:35:00,61.8,58.3,29.97,ENE,64,5.1,6.8,88,0.00,,,0.00,VWS V14.01,2013-06-18 13:35:00,
2013-06-18 09:36:00,61.5,57.4,29.95,East,85,7.5,7.5,86,0.00,,,0.00,VWS V14.01,2013-06-18 13:36:00,
2013-06-18 09:37:00,62.2,57.8,29.95,ENE,69,4.9,7.5,86,0.00,,,0.00,VWS V14.01,2013-06-18 13:37:00,
2013-06-18 09:40:00,62.1,57.3,29.95,NNE,33,6.4,6.6,84,0.00,,,0.00,VWS V14.01,2013-06-18 13:40:00,
2013-06-18 09:41:00,62.4,57.1,29.95,ENE,57,8.7,8.7,83,0.00,,,0.00,VWS V14.01,2013-06-18 13:41:00,
2013-06-18 09:42:00,62.1,56.5,29.95,NE,35,7.6,9.9,82,0.00,,,0.00,VWS V14.01,2013-06-18 13:42:00,
2013-06-18 09:44:00,61.7,55.8,29.94,NNE,33,8.3,10.4,81,0.00,,,0.00,VWS V14.01,2013-06-18 13:44:00,
2013-06-18 09:45:00,62.8,56.4,29.95,NE,34,6.9,8.1,80,0.00,,,0.00,VWS V14.01,2013-06-18 13:45:00,
2013-06-18 09:46:00,62.8,56.4,29.95,NE,34,6.9,8.1,80,0.00,,,0.00,VWS V14.01,2013-06-18 13:46:00,
2013-06-18 09:47:00,63.4,54.8,29.95,ENE,74,6.3,6.3,74,0.00,,,0.00,VWS V14.01,2013-06-18 13:47:00,
2013-06-18 09:49:00,63.7,54.1,29.95,NNE,24,8.8,8.8,71,0.00,,,0.00,VWS V14.01,2013-06-18 13:49:00,
2013-06-18 09:51:00,63.8,53.2,29.95,ENE,62,12.6,12.6,68,0.00,,,0.00,VWS V14.01,2013-06-18 13:51:00,
2013-06-18 09:53:00,63.0,52.1,29.94,NE,50,9.5,9.5,68,0.00,,,0.00,VWS V14.01,2013-06-18 13:53:00,
2013-06-18 09:55:00,63.1,52.4,29.95,NNE,27,7.6,10.9,68,0.00,,,0.00,VWS V14.01,2013-06-18 13:55:00,
2013-06-18 09:56:00,63.9,53.2,29.95,ENE,65,11.4,11.4,68,0.00,,,0.00,VWS V14.01,2013-06-18 13:56:00,
2013-06-18 09:58:00,62.7,51.6,29.95,ENE,59,9.0,9.5,67,0.00,,,0.00,VWS V14.01,2013-06-18 13:58:00,
2013-06-18 10:00:00,64.8,54.2,29.94,NNE,24,8.5,9.7,69,0.00,,,0.00,VWS V14.01,2013-06-18 14:00:00,
2013-06-18 10:01:00,63.3,52.0,29.94,NE,54,10.2,10.2,67,0.00,,,0.00,VWS V14.01,2013-06-18 14:01:00,
2013-06-18 10:03:00,64.5,54.0,29.95,ENE,67,8.0,10.2,69,0.00,,,0.00,VWS V14.01,2013-06-18 14:03:00,
2013-06-18 10:05:00,63.7,52.1,29.94,NE,40,8.3,10.2,66,0.00,,,0.00,VWS V14.01,2013-06-18 14:05:00,
2013-06-18 10:06:00,63.5,51.4,29.94,NE,49,9.7,10.2,65,0.00,,,0.00,VWS V14.01,2013-06-18 14:06:00,
2013-06-18 10:09:00,64.5,52.6,29.94,NE,42,9.3,10.2,65,0.00,,,0.00,VWS V14.01,2013-06-18 14:09:00,
2013-06-18 10:10:00,64.1,51.7,29.95,NNE,14,6.9,10.2,64,0.00,,,0.00,VWS V14.01,2013-06-18 14:10:00,
2013-06-18 10:11:00,64.8,51.9,29.95,NE,53,8.0,10.2,63,0.00,,,0.00,VWS V14.01,2013-06-18 14:11:00,
2013-06-18 10:12:00,64.7,51.6,29.95,ENE,61,6.4,10.2,62,0.00,,,0.00,VWS V14.01,2013-06-18 14:12:00,
2013-06-18 10:13:00,65.1,51.7,29.94,ENE,62,6.3,10.2,62,0.00,,,0.00,VWS V14.01,2013-06-18 14:13:00,
2013-06-18 10:14:00,64.8,50.7,29.94,East,83,9.0,10.2,60,0.00,,,0.00,VWS V14.01,2013-06-18 14:14:00,
2013-06-18 10:16:00,65.5,50.8,29.97,NE,35,11.2,11.2,59,0.00,,,0.00,VWS V14.01,2013-06-18 14:16:00,
2013-06-18 10:17:00,65.4,50.3,29.95,ENE,74,9.0,11.2,58,0.00,,,0.00,VWS V14.01,2013-06-18 14:17:00,
2013-06-18 10:18:00,66.4,52.4,29.94,East,93,6.3,11.2,61,0.00,,,0.00,VWS V14.01,2013-06-18 14:18:00,
2013-06-18 10:20:00,66.4,51.5,29.95,ENE,57,7.5,11.2,59,0.00,,,0.00,VWS V14.01,2013-06-18 14:20:00,
2013-06-18 10:21:00,65.2,49.3,29.95,NE,50,10.2,11.2,56,0.00,,,0.00,VWS V14.01,2013-06-18 14:21:00,
2013-06-18 10:22:00,65.4,48.6,29.95,NE,51,8.5,11.2,54,0.00,,,0.00,VWS V14.01,2013-06-18 14:22:00,
2013-06-18 10:24:00,65.8,50.5,29.95,East,90,7.3,11.2,58,0.00,,,0.00,VWS V14.01,2013-06-18 14:24:00,
2013-06-18 10:26:00,65.1,48.5,29.94,East,88,9.0,11.2,55,0.00,,,0.00,VWS V14.01,2013-06-18 14:26:00,
2013-06-18 10:27:00,64.6,48.4,29.94,East,80,12.1,12.1,56,0.00,,,0.00,VWS V14.01,2013-06-18 14:27:00,
2013-06-18 10:29:00,66.7,51.6,29.95,East,90,8.0,12.3,58,0.00,,,0.00,VWS V14.01,2013-06-18 14:29:00,
2013-06-18 10:32:00,68.8,54.0,29.94,East,99,4.9,12.3,59,0.00,,,0.00,VWS V14.01,2013-06-18 14:32:00,
2013-06-18 10:33:00,66.8,50.7,29.94,NE,56,5.9,12.3,56,0.00,,,0.00,VWS V14.01,2013-06-18 14:33:00,
2013-06-18 10:34:00,66.3,49.6,29.95,NNE,29,7.3,12.3,55,0.00,,,0.00,VWS V14.01,2013-06-18 14:34:00,
2013-06-18 10:38:00,65.6,49.4,29.94,NNE,32,8.7,12.3,56,0.00,,,0.00,VWS V14.01,2013-06-18 14:38:00,
2013-06-18 10:39:00,66.0,50.2,29.94,NNE,15,5.4,12.3,57,0.00,,,0.00,VWS V14.01,2013-06-18 14:39:00,
2013-06-18 10:40:00,65.3,49.8,29.95,NE,34,6.4,12.3,57,0.00,,,0.00,VWS V14.01,2013-06-18 14:40:00,
2013-06-18 10:42:00,66.3,50.2,29.94,ENE,72,7.3,12.3,56,0.00,,,0.00,VWS V14.01,2013-06-18 14:42:00,
2013-06-18 10:43:00,64.4,46.7,29.94,NE,43,13.6,13.6,52,0.00,,,0.00,VWS V14.01,2013-06-18 14:43:00,
2013-06-18 10:44:00,65.3,48.5,29.94,NNE,32,8.7,13.6,55,0.00,,,0.00,VWS V14.01,2013-06-18 14:44:00,
2013-06-18 10:45:00,66.0,50.9,29.94,NE,55,6.4,13.6,58,0.00,,,0.00,VWS V14.01,2013-06-18 14:45:00,
2013-06-18 10:46:00,65.6,49.1,29.94,NE,48,10.4,13.6,55,0.00,,,0.00,VWS V14.01,2013-06-18 14:46:00,
2013-06-18 10:49:00,66.6,50.0,29.94,NE,53,8.8,13.6,55,0.00,,,0.00,VWS V14.01,2013-06-18 14:49:00,
2013-06-18 10:50:00,66.3,50.0,29.94,NNE,33,6.4,13.6,56,0.00,,,0.00,VWS V14.01,2013-06-18 14:50:00,
2013-06-18 10:51:00,67.0,50.5,29.94,NE,40,6.1,13.6,55,0.00,,,0.00,VWS V14.01,2013-06-18 14:51:00,
2013-06-18 10:54:00,65.2,48.0,29.95,ENE,59,9.5,13.6,54,0.00,,,0.00,VWS V14.01,2013-06-18 14:54:00,
2013-06-18 10:55:00,65.9,49.0,29.95,East,79,7.1,13.6,54,0.00,,,0.00,VWS V14.01,2013-06-18 14:55:00,
2013-06-18 10:57:00,66.4,48.8,29.95,ENE,69,6.6,13.6,53,0.00,,,0.00,VWS V14.01,2013-06-18 14:57:00,
2013-06-18 10:59:00,68.6,51.0,29.94,ENE,57,6.9,13.6,53,0.00,,,0.00,VWS V14.01,2013-06-18 14:59:00,
2013-06-18 11:00:00,66.2,48.3,29.94,ENE,76,8.7,13.6,52,0.00,,,0.00,VWS V14.01,2013-06-18 15:00:00,
2013-06-18 11:02:00,66.2,48.6,29.94,NE,42,8.7,8.7,53,0.00,,,0.00,VWS V14.01,2013-06-18 15:02:00,
2013-06-18 11:03:00,66.0,47.5,29.94,NE,48,8.8,8.8,51,0.00,,,0.00,VWS V14.01,2013-06-18 15:03:00,
2013-06-18 11:04:00,66.0,48.1,29.94,ENE,61,8.8,9.2,52,0.00,,,0.00,VWS V14.01,2013-06-18 15:04:00,
2013-06-18 11:05:00,66.3,48.2,29.94,East,88,7.8,8.8,52,0.00,,,0.00,VWS V14.01,2013-06-18 15:05:00,
2013-06-18 11:08:00,67.1,48.8,29.95,NE,42,6.6,8.8,52,0.00,,,0.00,VWS V14.01,2013-06-18 15:08:00,
2013-06-18 11:10:00,69.1,51.1,29.95,NE,53,7.6,7.6,53,0.00,,,0.00,VWS V14.01,2013-06-18 15:10:00,
2013-06-18 11:11:00,66.1,46.3,29.94,NNE,28,10.2,10.2,49,0.00,,,0.00,VWS V14.01,2013-06-18 15:11:00,
2013-06-18 11:14:00,67.3,49.1,29.94,NE,55,9.9,10.7,52,0.00,,,0.00,VWS V14.01,2013-06-18 15:14:00,
2013-06-18 11:17:00,65.9,45.8,29.97,ENE,57,10.0,10.2,48,0.00,,,0.00,VWS V14.01,2013-06-18 15:17:00,
2013-06-18 11:18:00,67.0,48.0,29.95,NNE,29,8.3,10.0,50,0.00,,,0.00,VWS V14.01,2013-06-18 15:18:00,
2013-06-18 11:19:00,67.7,48.5,29.95,NE,46,6.9,8.3,50,0.00,,,0.00,VWS V14.01,2013-06-18 15:19:00,
2013-06-18 11:22:00,67.4,47.5,29.94,NE,48,6.4,8.1,49,0.00,,,0.00,VWS V14.01,2013-06-18 15:22:00,
2013-06-18 11:24:00,68.2,48.6,29.95,ENE,60,9.9,9.9,49,0.00,,,0.00,VWS V14.01,2013-06-18 15:24:00,
2013-06-18 11:25:00,67.4,48.1,29.94,ENE,59,9.2,9.9,50,0.00,,,0.00,VWS V14.01,2013-06-18 15:25:00,
2013-06-18 11:29:00,68.6,49.3,29.95,NE,37,7.5,10.4,50,0.00,,,0.00,VWS V14.01,2013-06-18 15:29:00,
2013-06-18 11:30:00,67.6,47.6,29.95,NE,52,10.0,10.0,49,0.00,,,0.00,VWS V14.01,2013-06-18 15:30:00,
2013-06-18 11:32:00,67.3,47.0,29.95,NE,56,10.2,10.2,48,0.00,,,0.00,VWS V14.01,2013-06-18 15:32:00,
2013-06-18 11:36:00,68.0,47.1,29.94,NE,39,9.3,9.3,47,0.00,,,0.00,VWS V14.01,2013-06-18 15:36:00,
2013-06-18 11:37:00,67.5,46.8,29.94,East,85,10.7,14.8,47,0.00,,,0.00,VWS V14.01,2013-06-18 15:37:00,
2013-06-18 11:41:00,67.9,45.6,29.94,NE,46,9.5,9.5,45,0.00,,,0.00,VWS V14.01,2013-06-18 15:41:00,
2013-06-18 11:42:00,69.3,48.5,29.94,NE,54,9.7,9.7,47,0.00,,,0.00,VWS V14.01,2013-06-18 15:42:00,
2013-06-18 11:43:00,68.6,47.0,29.94,ENE,58,5.1,11.1,46,0.00,,,0.00,VWS V14.01,2013-06-18 15:43:00,
2013-06-18 11:46:00,67.0,44.3,29.94,NE,34,9.9,9.9,44,0.00,,,0.00,VWS V14.01,2013-06-18 15:46:00,
2013-06-18 11:48:00,68.1,46.5,29.94,NE,46,10.5,11.6,46,0.00,,,0.00,VWS V14.01,2013-06-18 15:48:00,
2013-06-18 11:49:00,68.9,46.4,29.94,NNE,31,8.7,8.7,45,0.00,,,0.00,VWS V14.01,2013-06-18 15:49:00,
2013-06-18 11:51:00,68.9,47.0,29.94,NE,54,11.6,12.3,45,0.00,,,0.00,VWS V14.01,2013-06-18 15:51:00,
2013-06-18 11:53:00,67.7,45.0,29.94,NNE,29,6.8,6.8,44,0.00,,,0.00,VWS V14.01,2013-06-18 15:53:00,
2013-06-18 11:54:00,69.1,45.7,29.93,East,81,11.9,11.9,43,0.00,,,0.00,VWS V14.01,2013-06-18 15:54:00,
2013-06-18 11:57:00,68.3,45.5,29.94,ENE,78,12.9,12.9,44,0.00,,,0.00,VWS V14.01,2013-06-18 15:57:00,
2013-06-18 11:58:00,69.8,47.9,29.94,ENE,78,9.3,12.9,46,0.00,,,0.00,VWS V14.01,2013-06-18 15:58:00,
2013-06-18 11:59:00,69.3,46.8,29.94,NE,55,11.4,11.4,44,0.00,,,0.00,VWS V14.01,2013-06-18 15:59:00,
2013-06-18 12:00:00,67.7,45.2,29.94,ENE,71,10.2,11.4,44,0.00,,,0.00,VWS V14.01,2013-06-18 16:00:00,
2013-06-18 12:02:00,68.9,46.1,29.93,ENE,74,10.7,10.7,44,0.00,,,0.00,VWS V14.01,2013-06-18 16:02:00,
2013-06-18 12:04:00,68.0,45.5,29.93,ENE,72,12.8,12.8,44,0.00,,,0.00,VWS V14.01,2013-06-18 16:04:00,
2013-06-18 12:05:00,68.0,45.5,29.93,ENE,72,12.8,12.8,44,0.00,,,0.00,VWS V14.01,2013-06-18 16:05:00,
2013-06-18 12:07:00,69.6,46.8,29.93,NE,44,9.7,12.8,44,0.00,,,0.00,VWS V14.01,2013-06-18 16:07:00,
2013-06-18 12:08:00,70.8,47.5,29.93,ENE,59,8.0,12.8,43,0.00,,,0.00,VWS V14.01,2013-06-18 16:08:00,
2013-06-18 12:10:00,69.3,46.3,29.93,East,85,9.3,12.8,44,0.00,,,0.00,VWS V14.01,2013-06-18 16:10:00,
2013-06-18 12:11:00,71.6,50.1,29.92,ENE,58,13.6,13.6,47,0.00,,,0.00,VWS V14.01,2013-06-18 16:11:00,
2013-06-18 12:12:00,70.1,47.0,29.93,NE,56,9.3,13.6,44,0.00,,,0.00,VWS V14.01,2013-06-18 16:12:00,
2013-06-18 12:13:00,70.8,47.8,29.93,ENE,64,9.3,13.6,44,0.00,,,0.00,VWS V14.01,2013-06-18 16:13:00,
2013-06-18 12:15:00,68.4,45.6,29.92,ENE,66,9.2,13.6,44,0.00,,,0.00,VWS V14.01,2013-06-18 16:15:00,
2013-06-18 12:16:00,71.3,48.1,29.93,NE,37,7.3,13.6,44,0.00,,,0.00,VWS V14.01,2013-06-18 16:16:00,
2013-06-18 12:18:00,71.9,49.1,29.93,ENE,71,8.1,13.6,44,0.00,,,0.00,VWS V14.01,2013-06-18 16:18:00,
2013-06-18 12:19:00,68.6,44.0,29.93,ENE,70,11.2,13.6,41,0.00,,,0.00,VWS V14.01,2013-06-18 16:19:00,
2013-06-18 12:21:00,69.0,45.0,29.94,NE,56,10.5,13.6,42,0.00,,,0.00,VWS V14.01,2013-06-18 16:21:00,
2013-06-18 12:22:00,68.1,43.4,29.93,ENE,78,9.7,13.6,41,0.00,,,0.00,VWS V14.01,2013-06-18 16:22:00,
2013-06-18 12:24:00,69.1,45.5,29.94,ENE,78,6.6,13.6,43,0.00,,,0.00,VWS V14.01,2013-06-18 16:24:00,
2013-06-18 12:25:00,70.1,46.0,29.93,ESE,123,8.5,13.6,42,0.00,,,0.00,VWS V14.01,2013-06-18 16:25:00,
2013-06-18 12:26:00,69.5,44.6,29.93,East,88,7.5,13.6,41,0.00,,,0.00,VWS V14.01,2013-06-18 16:26:00,
2013-06-18 12:27:00,69.6,46.5,29.93,East,98,9.3,13.6,44,0.00,,,0.00,VWS V14.01,2013-06-18 16:27:00,
2013-06-18 12:30:00,71.0,48.8,29.94,NE,52,4.5,13.6,45,0.00,,,0.00,VWS V14.01,2013-06-18 16:30:00,
2013-06-18 12:32:00,69.0,45.8,29.94,NE,54,9.3,13.6,43,0.00,,,0.00,VWS V14.01,2013-06-18 16:32:00,
2013-06-18 12:33:00,68.6,45.3,29.94,NE,46,9.2,13.6,43,0.00,,,0.00,VWS V14.01,2013-06-18 16:33:00,
2013-06-18 12:35:00,69.7,47.1,29.94,NE,35,8.5,13.6,44,0.00,,,0.00,VWS V14.01,2013-06-18 16:35:00,
2013-06-18 12:36:00,69.6,45.8,29.94,NNE,16,9.5,13.6,43,0.00,,,0.00,VWS V14.01,2013-06-18 16:36:00,
2013-06-18 12:38:00,70.2,45.9,29.93,NE,52,9.2,13.6,42,0.00,,,0.00,VWS V14.01,2013-06-18 16:38:00,
2013-06-18 12:39:00,68.7,42.8,29.94,ENE,57,10.7,13.6,39,0.00,,,0.00,VWS V14.01,2013-06-18 16:39:00,
2013-06-18 12:41:00,70.2,45.2,29.94,ENE,70,8.1,13.6,41,0.00,,,0.00,VWS V14.01,2013-06-18 16:41:00,
2013-06-18 12:44:00,70.4,46.2,29.93,ESE,106,10.7,13.6,42,0.00,,,0.00,VWS V14.01,2013-06-18 16:44:00,
2013-06-18 12:46:00,70.5,43.9,29.94,East,79,9.3,13.6,38,0.00,,,0.00,VWS V14.01,2013-06-18 16:46:00,
2013-06-18 12:47:00,71.9,47.4,29.94,ENE,58,8.0,13.6,42,0.00,,,0.00,VWS V14.01,2013-06-18 16:47:00,
2013-06-18 12:48:00,69.6,43.0,29.93,East,101,7.1,13.6,38,0.00,,,0.00,VWS V14.01,2013-06-18 16:48:00,
2013-06-18 12:50:00,74.4,50.8,29.94,ENE,61,10.2,13.6,44,0.00,,,0.00,VWS V14.01,2013-06-18 16:50:00,
2013-06-18 12:52:00,68.9,42.2,29.94,NE,44,8.3,13.6,38,0.00,,,0.00,VWS V14.01,2013-06-18 16:52:00,
2013-06-18 12:53:00,70.6,45.5,29.94,NNE,29,6.8,13.6,41,0.00,,,0.00,VWS V14.01,2013-06-18 16:53:00,
2013-06-18 12:54:00,69.5,43.7,29.94,NE,45,11.2,13.6,39,0.00,,,0.00,VWS V14.01,2013-06-18 16:54:00,
2013-06-18 12:56:00,69.2,44.0,29.94,ENE,57,9.3,13.6,40,0.00,,,0.00,VWS V14.01,2013-06-18 16:56:00,
2013-06-18 12:58:00,70.2,46.0,29.94,NE,45,5.7,13.6,42,0.00,,,0.00,VWS V14.01,2013-06-18 16:58:00,
2013-06-18 12:59:00,70.5,45.9,29.94,ENE,59,5.1,13.6,41,0.00,,,0.00,VWS V14.01,2013-06-18 16:59:00,
2013-06-18 13:00:00,69.9,45.2,29.95,NNE,30,5.7,13.6,41,0.00,,,0.00,VWS V14.01,2013-06-18 17:00:00,
2013-06-18 13:01:00,69.9,45.2,29.95,NNE,30,5.7,13.6,41,0.00,,,0.00,VWS V14.01,2013-06-18 17:01:00,
2013-06-18 13:03:00,70.3,46.3,29.94,NE,44,6.3,6.3,42,0.00,,,0.00,VWS V14.01,2013-06-18 17:03:00,
2013-06-18 13:04:00,71.3,45.7,29.94,NNW,348,5.1,5.1,40,0.00,,,0.00,VWS V14.01,2013-06-18 17:04:00,
2013-06-18 13:06:00,72.6,46.8,29.95,ENE,78,10.4,10.4,40,0.00,,,0.00,VWS V14.01,2013-06-18 17:06:00,
2013-06-18 13:07:00,71.6,46.4,29.94,East,84,6.6,7.5,41,0.00,,,0.00,VWS V14.01,2013-06-18 17:07:00,
2013-06-18 13:09:00,68.8,38.6,29.94,East,82,10.5,11.7,33,0.00,,,0.00,VWS V14.01,2013-06-18 17:09:00,
2013-06-18 13:11:00,70.9,46.0,29.94,ENE,60,8.5,10.7,41,0.00,,,0.00,VWS V14.01,2013-06-18 17:11:00,
2013-06-18 13:12:00,72.2,48.2,29.94,ENE,70,6.6,9.0,42,0.00,,,0.00,VWS V14.01,2013-06-18 17:12:00,
2013-06-18 13:14:00,70.2,43.3,29.94,NE,47,5.2,5.4,38,0.00,,,0.00,VWS V14.01,2013-06-18 17:14:00,
2013-06-18 13:15:00,71.9,45.0,29.94,WNW,294,3.5,3.5,38,0.00,,,0.00,VWS V14.01,2013-06-18 17:15:00,
2013-06-18 13:16:00,70.2,42.9,29.94,NE,45,9.0,9.0,37,0.00,,,0.00,VWS V14.01,2013-06-18 17:16:00,
2013-06-18 13:17:00,71.3,44.5,29.93,NE,55,7.8,9.0,38,0.00,,,0.00,VWS V14.01,2013-06-18 17:17:00,
2013-06-18 13:21:00,70.2,43.4,29.94,NNE,19,9.2,9.2,38,0.00,,,0.00,VWS V14.01,2013-06-18 17:21:00,
2013-06-18 13:22:00,69.5,43.7,29.94,NE,46,7.8,10.4,39,0.00,,,0.00,VWS V14.01,2013-06-18 17:22:00,
2013-06-18 13:23:00,69.2,43.4,29.94,NE,55,10.4,10.4,39,0.00,,,0.00,VWS V14.01,2013-06-18 17:23:00,
2013-06-18 13:24:00,69.2,43.4,29.94,NE,55,10.4,10.4,39,0.00,,,0.00,VWS V14.01,2013-06-18 17:24:00,
2013-06-18 13:26:00,69.8,46.0,29.94,NE,48,6.1,7.6,42,0.00,,,0.00,VWS V14.01,2013-06-18 17:26:00,
2013-06-18 13:27:00,70.7,44.2,29.94,NE,48,5.2,5.2,39,0.00,,,0.00,VWS V14.01,2013-06-18 17:27:00,
2013-06-18 13:29:00,69.7,42.7,29.94,NE,45,5.4,11.2,38,0.00,,,0.00,VWS V14.01,2013-06-18 17:29:00,
2013-06-18 13:30:00,71.2,44.2,29.94,NNE,13,7.5,7.6,38,0.00,,,0.00,VWS V14.01,2013-06-18 17:30:00,
2013-06-18 13:31:00,71.4,43.4,29.94,NNE,29,8.7,8.7,37,0.00,,,0.00,VWS V14.01,2013-06-18 17:31:00,
2013-06-18 13:32:00,73.0,48.0,29.93,ENE,59,5.9,9.2,41,0.00,,,0.00,VWS V14.01,2013-06-18 17:32:00,
2013-06-18 13:35:00,71.5,44.7,29.94,NNE,28,7.8,10.4,38,0.00,,,0.00,VWS V14.01,2013-06-18 17:35:00,
2013-06-18 13:36:00,73.1,47.2,29.94,ENE,63,7.1,7.1,40,0.00,,,0.00,VWS V14.01,2013-06-18 17:36:00,
2013-06-18 13:37:00,70.7,43.2,29.93,NE,47,9.2,9.2,37,0.00,,,0.00,VWS V14.01,2013-06-18 17:37:00,
2013-06-18 13:40:00,70.8,43.8,29.93,East,99,8.5,8.5,38,0.00,,,0.00,VWS V14.01,2013-06-18 17:40:00,
2013-06-18 13:41:00,70.7,45.2,29.94,ENE,59,8.5,11.2,40,0.00,,,0.00,VWS V14.01,2013-06-18 17:41:00,
2013-06-18 13:42:00,70.0,43.8,29.93,East,89,10.4,11.2,39,0.00,,,0.00,VWS V14.01,2013-06-18 17:42:00,
2013-06-18 13:43:00,71.2,45.5,29.93,East,87,10.9,10.9,40,0.00,,,0.00,VWS V14.01,2013-06-18 17:43:00,
2013-06-18 13:46:00,72.4,45.5,29.94,ENE,70,6.8,6.8,38,0.00,,,0.00,VWS V14.01,2013-06-18 17:46:00,
2013-06-18 13:47:00,71.4,43.7,29.94,NE,51,9.2,9.2,37,0.00,,,0.00,VWS V14.01,2013-06-18 17:47:00,
2013-06-18 13:49:00,70.3,43.5,29.94,East,80,10.2,11.6,38,0.00,,,0.00,VWS V14.01,2013-06-18 17:49:00,
2013-06-18 13:51:00,71.1,44.2,29.93,NE,55,12.9,12.9,38,0.00,,,0.00,VWS V14.01,2013-06-18 17:51:00,
2013-06-18 13:52:00,70.8,44.3,29.93,ENE,77,10.9,13.3,38,0.00,,,0.00,VWS V14.01,2013-06-18 17:52:00,
2013-06-18 13:54:00,70.9,43.7,29.93,ENE,70,10.7,10.7,38,0.00,,,0.00,VWS V14.01,2013-06-18 17:54:00,
2013-06-18 13:55:00,71.4,43.8,29.93,NE,36,4.4,10.7,37,0.00,,,0.00,VWS V14.01,2013-06-18 17:55:00,
2013-06-18 13:58:00,72.6,45.1,29.93,ENE,76,7.1,8.1,37,0.00,,,0.00,VWS V14.01,2013-06-18 17:58:00,
2013-06-18 13:59:00,71.0,42.5,29.93,ENE,70,10.5,10.5,36,0.00,,,0.00,VWS V14.01,2013-06-18 17:59:00,
2013-06-18 14:00:00,70.5,42.0,29.93,ENE,60,9.0,9.0,36,0.00,,,0.00,VWS V14.01,2013-06-18 18:00:00,
2013-06-18 14:03:00,72.5,45.6,29.94,ENE,57,7.1,7.1,38,0.00,,,0.00,VWS V14.01,2013-06-18 18:03:00,
2013-06-18 14:05:00,72.6,44.1,29.93,East,90,6.6,6.9,36,0.00,,,0.00,VWS V14.01,2013-06-18 18:05:00,
2013-06-18 14:06:00,70.9,42.9,29.93,East,94,10.4,10.4,36,0.00,,,0.00,VWS V14.01,2013-06-18 18:06:00,
2013-06-18 14:09:00,71.1,43.7,29.94,East,97,6.6,10.9,37,0.00,,,0.00,VWS V14.01,2013-06-18 18:09:00,
2013-06-18 14:10:00,73.5,47.2,29.93,ENE,65,6.4,6.6,39,0.00,,,0.00,VWS V14.01,2013-06-18 18:10:00,
2013-06-18 14:11:00,73.3,45.4,29.93,ENE,61,7.5,8.1,37,0.00,,,0.00,VWS V14.01,2013-06-18 18:11:00,
2013-06-18 14:12:00,71.1,42.7,29.93,NE,37,7.3,7.5,36,0.00,,,0.00,VWS V14.01,2013-06-18 18:12:00,
2013-06-18 14:15:00,70.1,44.0,29.93,ENE,57,11.7,11.7,39,0.00,,,0.00,VWS V14.01,2013-06-18 18:15:00,
2013-06-18 14:17:00,71.0,45.4,29.93,ENE,66,10.4,10.4,40,0.00,,,0.00,VWS V14.01,2013-06-18 18:17:00,
2013-06-18 14:18:00,72.0,46.9,29.93,NE,44,8.3,8.3,41,0.00,,,0.00,VWS V14.01,2013-06-18 18:18:00,
2013-06-18 14:22:00,71.4,44.9,29.93,East,100,11.7,11.7,39,0.00,,,0.00,VWS V14.01,2013-06-18 18:22:00,
2013-06-18 14:23:00,71.7,46.0,29.93,ENE,72,8.8,8.8,40,0.00,,,0.00,VWS V14.01,2013-06-18 18:23:00,
2013-06-18 14:24:00,72.5,46.9,29.93,NNE,31,10.0,10.0,40,0.00,,,0.00,VWS V14.01,2013-06-18 18:24:00,
2013-06-18 14:26:00,71.5,46.6,29.94,NE,42,7.3,7.3,41,0.00,,,0.00,VWS V14.01,2013-06-18 18:26:00,
2013-06-18 14:29:00,71.0,45.9,29.93,ENE,72,10.5,10.5,41,0.00,,,0.00,VWS V14.01,2013-06-18 18:29:00,
2013-06-18 14:30:00,72.3,45.3,29.94,East,79,6.4,6.4,38,0.00,,,0.00,VWS V14.01,2013-06-18 18:30:00,
2013-06-18 14:31:00,72.1,44.4,29.94,East,101,7.6,7.6,37,0.00,,,0.00,VWS V14.01,2013-06-18 18:31:00,
2013-06-18 14:33:00,71.1,42.6,29.94,ENE,62,8.7,8.7,36,0.00,,,0.00,VWS V14.01,2013-06-18 18:33:00,
2013-06-18 14:34:00,70.9,41.8,29.93,ENE,66,7.8,8.7,35,0.00,,,0.00,VWS V14.01,2013-06-18 18:34:00,
2013-06-18 14:36:00,71.5,42.7,29.93,ENE,64,8.1,8.1,35,0.00,,,0.00,VWS V14.01,2013-06-18 18:36:00,
2013-06-18 14:40:00,71.0,44.6,29.93,NE,46,10.2,10.7,39,0.00,,,0.00,VWS V14.01,2013-06-18 18:40:00,
2013-06-18 14:41:00,70.5,44.4,29.93,ENE,66,7.3,10.7,39,0.00,,,0.00,VWS V14.01,2013-06-18 18:41:00,
2013-06-18 14:42:00,73.9,48.0,29.93,ENE,76,4.2,5.9,40,0.00,,,0.00,VWS V14.01,2013-06-18 18:42:00,
2013-06-18 14:46:00,71.3,43.2,29.94,NE,38,9.2,9.3,36,0.00,,,0.00,VWS V14.01,2013-06-18 18:46:00,
2013-06-18 14:48:00,71.6,43.2,29.94,NE,34,6.9,6.9,36,0.00,,,0.00,VWS V14.01,2013-06-18 18:48:00,
2013-06-18 14:49:00,73.2,45.8,29.94,NNE,33,5.4,6.8,38,0.00,,,0.00,VWS V14.01,2013-06-18 18:49:00,
2013-06-18 14:51:00,73.7,44.1,29.94,ENE,77,7.6,7.6,35,0.00,,,0.00,VWS V14.01,2013-06-18 18:51:00,
2013-06-18 14:54:00,73.8,43.5,29.94,ENE,70,9.2,9.2,34,0.00,,,0.00,VWS V14.01,2013-06-18 18:54:00,
2013-06-18 14:55:00,71.7,41.2,29.94,ENE,57,8.8,9.2,33,0.00,,,0.00,VWS V14.01,2013-06-18 18:55:00,
2013-06-18 14:56:00,71.3,42.5,29.93,ENE,77,7.5,8.8,35,0.00,,,0.00,VWS V14.01,2013-06-18 18:56:00,
2013-06-18 14:58:00,71.3,42.5,29.93,NE,47,5.1,9.5,35,0.00,,,0.00,VWS V14.01,2013-06-18 18:58:00,
2013-06-18 14:59:00,72.9,44.3,29.96,NNE,23,6.3,6.3,36,0.00,,,0.00,VWS V14.01,2013-06-18 18:59:00,
2013-06-18 15:00:00,72.3,44.3,29.94,NE,38,8.0,8.0,37,0.00,,,0.00,VWS V14.01,2013-06-18 19:00:00,
2013-06-18 15:01:00,71.8,43.5,29.93,NE,40,10.4,10.4,36,0.00,,,0.00,VWS V14.01,2013-06-18 19:01:00,
2013-06-18 15:02:00,71.2,41.8,29.93,NE,40,10.5,10.5,35,0.00,,,0.00,VWS V14.01,2013-06-18 19:02:00,
2013-06-18 15:03:00,74.4,46.6,29.93,NE,54,8.8,9.3,37,0.00,,,0.00,VWS V14.01,2013-06-18 19:03:00,
2013-06-18 15:05:00,72.0,43.1,29.93,East,82,5.2,7.5,35,0.00,,,0.00,VWS V14.01,2013-06-18 19:05:00,
2013-06-18 15:07:00,72.6,44.7,29.94,NE,49,7.8,8.3,37,0.00,,,0.00,VWS V14.01,2013-06-18 19:07:00,
2013-06-18 15:08:00,72.5,43.7,29.94,NE,56,7.6,7.8,36,0.00,,,0.00,VWS V14.01,2013-06-18 19:08:00,
2013-06-18 15:10:00,72.3,45.2,29.94,NE,48,6.4,6.4,38,0.00,,,0.00,VWS V14.01,2013-06-18 19:10:00,
2013-06-18 15:12:00,72.4,45.3,29.94,NE,47,9.5,10.9,38,0.00,,,0.00,VWS V14.01,2013-06-18 19:12:00,
2013-06-18 15:13:00,70.8,42.5,29.94,NE,43,10.4,10.4,36,0.00,,,0.00,VWS V14.01,2013-06-18 19:13:00,
2013-06-18 15:14:00,72.0,45.2,29.93,NE,42,6.4,8.3,38,0.00,,,0.00,VWS V14.01,2013-06-18 19:14:00,
2013-06-18 15:15:00,71.7,44.6,29.93,NE,49,8.1,8.1,38,0.00,,,0.00,VWS V14.01,2013-06-18 19:15:00,
2013-06-18 15:18:00,70.9,44.4,29.94,NE,44,8.7,8.7,39,0.00,,,0.00,VWS V14.01,2013-06-18 19:18:00,
2013-06-18 15:19:00,71.6,44.6,29.94,ENE,57,10.0,10.0,38,0.00,,,0.00,VWS V14.01,2013-06-18 19:19:00,
2013-06-18 15:21:00,71.2,44.5,29.94,ENE,74,8.5,8.5,38,0.00,,,0.00,VWS V14.01,2013-06-18 19:21:00,
2013-06-18 15:23:00,71.0,44.9,29.94,NNE,32,8.8,8.8,39,0.00,,,0.00,VWS V14.01,2013-06-18 19:23:00,
2013-06-18 15:25:00,70.9,44.1,29.94,NE,53,9.3,9.3,38,0.00,,,0.00,VWS V14.01,2013-06-18 19:25:00,
2013-06-18 15:26:00,72.1,46.6,29.94,ENE,61,10.0,10.0,40,0.00,,,0.00,VWS V14.01,2013-06-18 19:26:00,
2013-06-18 15:27:00,70.7,42.8,29.94,NE,47,9.2,10.0,37,0.00,,,0.00,VWS V14.01,2013-06-18 19:27:00,
2013-06-18 15:31:00,72.9,46.5,29.94,East,97,7.5,7.5,39,0.00,,,0.00,VWS V14.01,2013-06-18 19:31:00,
2013-06-18 15:32:00,71.7,43.4,29.94,ENE,71,9.9,9.9,36,0.00,,,0.00,VWS V14.01,2013-06-18 19:32:00,
2013-06-18 15:36:00,71.3,42.9,29.94,East,80,7.3,7.3,36,0.00,,,0.00,VWS V14.01,2013-06-18 19:36:00,
2013-06-18 15:37:00,71.8,44.6,29.94,ENE,75,5.1,7.3,38,0.00,,,0.00,VWS V14.01,2013-06-18 19:37:00,
2013-06-18 15:38:00,73.3,45.4,29.93,East,88,7.3,10.9,37,0.00,,,0.00,VWS V14.01,2013-06-18 19:38:00,
2013-06-18 15:41:00,75.3,47.8,29.94,NNE,31,6.9,12.9,38,0.00,,,0.00,VWS V14.01,2013-06-18 19:41:00,
2013-06-18 15:42:00,74.0,46.3,29.93,NE,41,5.4,8.0,37,0.00,,,0.00,VWS V14.01,2013-06-18 19:42:00,
2013-06-18 15:43:00,73.2,46.8,29.93,NE,38,6.8,6.8,39,0.00,,,0.00,VWS V14.01,2013-06-18 19:43:00,
2013-06-18 15:44:00,72.3,42.8,29.93,North,9,9.9,9.9,34,0.00,,,0.00,VWS V14.01,2013-06-18 19:44:00,
2013-06-18 15:47:00,74.1,44.8,29.93,ENE,66,6.9,7.6,35,0.00,,,0.00,VWS V14.01,2013-06-18 19:47:00,
2013-06-18 15:48:00,74.1,44.8,29.93,ENE,66,6.9,7.6,35,0.00,,,0.00,VWS V14.01,2013-06-18 19:48:00,
2013-06-18 15:50:00,72.3,41.9,29.93,East,83,10.0,10.0,33,0.00,,,0.00,VWS V14.01,2013-06-18 19:50:00,
2013-06-18 15:54:00,70.9,41.4,29.93,East,84,9.3,9.3,34,0.00,,,0.00,VWS V14.01,2013-06-18 19:54:00,
2013-06-18 15:55:00,70.8,42.0,29.93,East,84,12.8,12.8,35,0.00,,,0.00,VWS V14.01,2013-06-18 19:55:00,
2013-06-18 15:56:00,70.7,43.4,29.94,ENE,63,11.9,11.9,37,0.00,,,0.00,VWS V14.01,2013-06-18 19:56:00,
2013-06-18 16:00:00,71.9,46.4,29.94,ENE,57,7.6,7.6,40,0.00,,,0.00,VWS V14.01,2013-06-18 20:00:00,
2013-06-18 16:01:00,73.3,48.0,29.93,ENE,58,5.1,6.9,41,0.00,,,0.00,VWS V14.01,2013-06-18 20:01:00,
2013-06-18 16:02:00,72.8,46.2,29.93,NE,54,9.2,9.2,39,0.00,,,0.00,VWS V14.01,2013-06-18 20:02:00,
2013-06-18 16:06:00,72.4,45.1,29.94,ENE,60,8.3,9.7,38,0.00,,,0.00,VWS V14.01,2013-06-18 20:06:00,
2013-06-18 16:07:00,73.4,46.3,29.94,NE,53,6.3,9.0,38,0.00,,,0.00,VWS V14.01,2013-06-18 20:07:00,
2013-06-18 16:08:00,71.7,43.1,29.94,ENE,75,8.8,8.8,36,0.00,,,0.00,VWS V14.01,2013-06-18 20:08:00,
2013-06-18 16:11:00,71.4,42.8,29.94,East,81,8.0,8.0,36,0.00,,,0.00,VWS V14.01,2013-06-18 20:11:00,
2013-06-18 16:12:00,73.1,45.3,29.94,East,83,7.8,8.0,37,0.00,,,0.00,VWS V14.01,2013-06-18 20:12:00,
2013-06-18 16:13:00,72.9,44.6,29.94,NE,52,7.1,8.3,36,0.00,,,0.00,VWS V14.01,2013-06-18 20:13:00,
2013-06-18 16:16:00,70.7,42.7,29.94,East,86,9.3,10.5,36,0.00,,,0.00,VWS V14.01,2013-06-18 20:16:00,
2013-06-18 16:18:00,70.8,42.7,29.95,NE,42,7.3,9.3,36,0.00,,,0.00,VWS V14.01,2013-06-18 20:18:00,
2013-06-18 16:20:00,70.7,43.6,29.94,ENE,68,8.5,8.5,38,0.00,,,0.00,VWS V14.01,2013-06-18 20:20:00,
2013-06-18 16:22:00,70.7,44.6,29.94,NNE,28,11.6,11.6,39,0.00,,,0.00,VWS V14.01,2013-06-18 20:22:00,
2013-06-18 16:23:00,70.7,44.5,29.94,ENE,58,9.7,9.7,39,0.00,,,0.00,VWS V14.01,2013-06-18 20:23:00,
2013-06-18 16:24:00,70.8,45.6,29.94,NE,51,7.3,9.7,40,0.00,,,0.00,VWS V14.01,2013-06-18 20:24:00,
2013-06-18 16:25:00,71.2,45.0,29.94,NE,54,8.8,9.0,39,0.00,,,0.00,VWS V14.01,2013-06-18 20:25:00,
2013-06-18 16:27:00,70.7,44.3,29.94,NNE,30,8.0,8.0,39,0.00,,,0.00,VWS V14.01,2013-06-18 20:27:00,
2013-06-18 16:28:00,71.7,46.1,29.94,NNE,30,4.9,6.3,40,0.00,,,0.00,VWS V14.01,2013-06-18 20:28:00,
2013-06-18 16:30:00,71.3,44.6,29.94,NE,54,6.4,6.4,38,0.00,,,0.00,VWS V14.01,2013-06-18 20:30:00,
2013-06-18 16:31:00,73.2,47.2,29.97,NE,51,6.6,6.6,40,0.00,,,0.00,VWS V14.01,2013-06-18 20:31:00,
2013-06-18 16:33:00,71.3,45.4,29.94,NE,51,7.5,11.4,39,0.00,,,0.00,VWS V14.01,2013-06-18 20:33:00,
2013-06-18 16:35:00,70.6,44.1,29.94,NE,52,11.2,11.2,39,0.00,,,0.00,VWS V14.01,2013-06-18 20:35:00,
2013-06-18 16:36:00,70.4,43.8,29.95,NE,47,10.4,10.4,38,0.00,,,0.00,VWS V14.01,2013-06-18 20:36:00,
2013-06-18 16:39:00,70.7,44.4,29.94,NE,56,6.9,9.2,39,0.00,,,0.00,VWS V14.01,2013-06-18 20:39:00,
2013-06-18 16:40:00,70.2,43.5,29.95,NE,56,8.5,8.5,38,0.00,,,0.00,VWS V14.01,2013-06-18 20:40:00,
2013-06-18 16:41:00,71.7,46.1,29.94,NE,49,8.0,8.5,40,0.00,,,0.00,VWS V14.01,2013-06-18 20:41:00,
2013-06-18 16:42:00,71.0,44.8,29.94,NE,50,6.6,6.6,39,0.00,,,0.00,VWS V14.01,2013-06-18 20:42:00,
2013-06-18 16:44:00,71.8,45.4,29.94,NE,53,6.6,9.7,39,0.00,,,0.00,VWS V14.01,2013-06-18 20:44:00,
2013-06-18 16:46:00,71.2,45.3,29.94,NE,50,8.8,9.3,39,0.00,,,0.00,VWS V14.01,2013-06-18 20:46:00,
2013-06-18 16:48:00,70.6,44.0,29.95,NE,43,9.5,9.5,38,0.00,,,0.00,VWS V14.01,2013-06-18 20:48:00,
2013-06-18 16:50:00,70.4,43.8,29.94,NNE,23,9.0,9.3,38,0.00,,,0.00,VWS V14.01,2013-06-18 20:50:00,
2013-06-18 16:52:00,70.6,44.6,29.94,ENE,69,6.9,7.5,39,0.00,,,0.00,VWS V14.01,2013-06-18 20:52:00,
2013-06-18 16:53:00,71.1,45.2,29.94,NE,44,9.5,9.5,39,0.00,,,0.00,VWS V14.01,2013-06-18 20:53:00,
2013-06-18 16:55:00,73.1,47.3,29.93,ENE,71,7.3,7.3,40,0.00,,,0.00,VWS V14.01,2013-06-18 20:55:00,
2013-06-18 16:57:00,70.8,42.8,29.93,NE,56,8.5,8.5,36,0.00,,,0.00,VWS V14.01,2013-06-18 20:57:00,
2013-06-18 16:58:00,72.2,45.2,29.93,ENE,69,7.8,8.5,38,0.00,,,0.00,VWS V14.01,2013-06-18 20:58:00,
2013-06-18 16:59:00,74.6,48.3,29.93,NE,42,5.4,7.8,40,0.00,,,0.00,VWS V14.01,2013-06-18 20:59:00,
2013-06-18 17:00:00,75.4,48.6,29.94,NNE,29,5.1,5.1,39,0.00,,,0.83,VWS V14.01,2013-06-18 21:00:00,
2013-06-18 17:02:00,75.4,48.6,29.94,NNE,29,5.1,5.1,39,0.00,,,0.00,VWS V14.01,2013-06-18 21:02:00,
2013-06-18 17:03:00,75.4,48.6,29.94,NNE,29,5.1,5.1,39,0.00,,,0.00,VWS V14.01,2013-06-18 21:03:00,
2013-06-18 17:04:00,75.4,48.6,29.94,NNE,29,5.1,5.1,39,0.00,,,0.00,VWS V14.01,2013-06-18 21:04:00,
2013-06-18 17:05:00,72.0,43.6,29.93,East,84,10.2,10.4,36,0.00,,,0.00,VWS V14.01,2013-06-18 21:05:00,
2013-06-18 17:06:00,73.2,45.7,29.93,ENE,60,12.9,12.9,37,0.00,,,0.00,VWS V14.01,2013-06-18 21:06:00,
2013-06-18 17:08:00,72.4,44.2,29.94,NNE,17,8.7,10.9,36,0.00,,,0.00,VWS V14.01,2013-06-18 21:08:00,
2013-06-18 17:10:00,71.2,44.2,29.93,NE,51,8.8,11.9,38,0.00,,,0.00,VWS V14.01,2013-06-18 21:10:00,
2013-06-18 17:11:00,72.0,44.2,29.93,NE,46,8.1,8.8,37,0.00,,,0.00,VWS V14.01,2013-06-18 21:11:00,
2013-06-18 17:13:00,70.4,41.3,29.93,NNE,13,12.8,12.8,35,0.00,,,0.00,VWS V14.01,2013-06-18 21:13:00,
2013-06-18 17:15:00,70.6,43.3,29.94,NE,48,8.7,8.7,37,0.00,,,0.00,VWS V14.01,2013-06-18 21:15:00,
2013-06-18 17:16:00,70.5,43.4,29.94,NE,56,8.3,8.7,38,0.00,,,0.00,VWS V14.01,2013-06-18 21:16:00,
2013-06-18 17:17:00,71.0,44.1,29.94,NNE,28,8.1,8.3,38,0.00,,,0.00,VWS V14.01,2013-06-18 21:17:00,
2013-06-18 17:20:00,70.8,44.3,29.97,ENE,61,6.3,8.5,39,0.00,,,0.00,VWS V14.01,2013-06-18 21:20:00,
2013-06-18 17:22:00,71.3,45.4,29.94,ENE,57,7.3,7.8,40,0.00,,,0.00,VWS V14.01,2013-06-18 21:22:00,
2013-06-18 17:23:00,70.6,44.5,29.95,NE,48,8.1,8.1,39,0.00,,,0.00,VWS V14.01,2013-06-18 21:23:00,
2013-06-18 17:24:00,70.6,45.1,29.95,ENE,66,6.6,8.1,40,0.00,,,0.00,VWS V14.01,2013-06-18 21:24:00,
2013-06-18 17:27:00,70.9,45.4,29.94,NE,47,9.0,9.0,40,0.00,,,0.00,VWS V14.01,2013-06-18 21:27:00,
2013-06-18 17:28:00,70.2,44.9,29.94,NE,50,9.7,11.4,40,0.00,,,0.00,VWS V14.01,2013-06-18 21:28:00,
2013-06-18 17:29:00,71.3,46.8,29.95,ENE,71,7.1,9.7,42,0.00,,,0.00,VWS V14.01,2013-06-18 21:29:00,
2013-06-18 17:33:00,70.5,45.3,29.94,NE,51,6.4,7.3,40,0.00,,,0.00,VWS V14.01,2013-06-18 21:33:00,
2013-06-18 17:34:00,70.8,46.2,29.94,ENE,57,6.3,7.3,41,0.00,,,0.00,VWS V14.01,2013-06-18 21:34:00,
2013-06-18 17:38:00,70.5,44.7,29.94,NE,48,6.3,6.8,40,0.00,,,0.00,VWS V14.01,2013-06-18 21:38:00,
2013-06-18 17:39:00,70.2,44.9,29.94,NE,56,9.0,10.2,40,0.00,,,0.00,VWS V14.01,2013-06-18 21:39:00,
2013-06-18 17:41:00,70.6,45.8,29.94,East,94,5.2,8.5,41,0.00,,,0.00,VWS V14.01,2013-06-18 21:41:00,
2013-06-18 17:44:00,70.8,47.0,29.94,ENE,65,8.1,8.1,43,0.00,,,0.00,VWS V14.01,2013-06-18 21:44:00,
2013-06-18 17:45:00,70.8,47.0,29.94,ENE,65,8.1,8.1,43,0.00,,,0.00,VWS V14.01,2013-06-18 21:45:00,
2013-06-18 17:46:00,70.8,47.3,29.94,ENE,64,6.6,6.6,43,0.00,,,0.00,VWS V14.01,2013-06-18 21:46:00,
2013-06-18 17:47:00,70.4,45.7,29.94,NE,42,5.9,10.2,41,0.00,,,0.00,VWS V14.01,2013-06-18 21:47:00,
2013-06-18 17:48:00,70.3,45.2,29.94,NE,55,8.5,8.5,40,0.00,,,0.00,VWS V14.01,2013-06-18 21:48:00,
2013-06-18 17:51:00,72.2,47.0,29.94,NE,53,6.4,7.5,41,0.00,,,0.00,VWS V14.01,2013-06-18 21:51:00,
2013-06-18 17:52:00,71.5,46.1,29.94,ENE,61,7.5,9.0,40,0.00,,,0.00,VWS V14.01,2013-06-18 21:52:00,
2013-06-18 17:53:00,71.4,45.4,29.95,NE,56,6.6,7.6,39,0.00,,,0.00,VWS V14.01,2013-06-18 21:53:00,
2013-06-18 17:55:00,72.0,45.6,29.95,NE,55,6.4,9.9,39,0.00,,,0.00,VWS V14.01,2013-06-18 21:55:00,
2013-06-18 17:58:00,71.5,44.6,29.94,NE,40,8.7,8.7,38,0.00,,,0.00,VWS V14.01,2013-06-18 21:58:00,
2013-06-18 17:59:00,72.6,45.7,29.94,ENE,65,6.6,6.6,38,0.00,,,0.00,VWS V14.01,2013-06-18 21:59:00,
2013-06-18 18:00:00,71.1,44.0,29.94,NE,43,6.3,6.6,38,0.00,,,0.00,VWS V14.01,2013-06-18 22:00:00,
2013-06-18 18:04:00,70.6,44.0,29.94,NE,50,9.0,9.5,38,0.00,,,0.00,VWS V14.01,2013-06-18 22:04:00,
2013-06-18 18:05:00,71.2,44.8,29.94,ENE,63,8.5,9.5,39,0.00,,,0.00,VWS V14.01,2013-06-18 22:05:00,
2013-06-18 18:06:00,70.5,42.8,29.94,NE,55,11.1,11.1,37,0.00,,,0.00,VWS V14.01,2013-06-18 22:06:00,
2013-06-18 18:07:00,71.1,44.7,29.94,East,80,7.1,7.1,39,0.00,,,0.00,VWS V14.01,2013-06-18 22:07:00,
2013-06-18 18:10:00,71.3,45.8,29.95,NE,55,5.9,6.9,40,0.00,,,0.00,VWS V14.01,2013-06-18 22:10:00,
2013-06-18 18:11:00,70.0,44.1,29.94,East,96,8.5,8.5,39,0.00,,,0.00,VWS V14.01,2013-06-18 22:11:00,
2013-06-18 18:12:00,71.6,45.5,29.94,East,81,8.0,8.0,39,0.00,,,0.00,VWS V14.01,2013-06-18 22:12:00,
2013-06-18 18:13:00,72.8,47.0,29.94,ENE,75,8.5,8.5,40,0.00,,,0.00,VWS V14.01,2013-06-18 22:13:00,
2013-06-18 18:15:00,71.1,43.8,29.94,NE,48,7.1,10.4,37,0.00,,,0.00,VWS V14.01,2013-06-18 22:15:00,
2013-06-18 18:17:00,73.1,46.7,29.94,ENE,76,7.6,7.6,39,0.00,,,0.00,VWS V14.01,2013-06-18 22:17:00,
2013-06-18 18:18:00,70.7,43.7,29.94,East,86,10.4,11.1,38,0.00,,,0.00,VWS V14.01,2013-06-18 22:18:00,
2013-06-18 18:19:00,70.8,44.2,29.94,NE,54,10.7,10.7,38,0.00,,,0.00,VWS V14.01,2013-06-18 22:19:00,
2013-06-18 18:20:00,71.2,45.2,29.94,NE,51,6.9,7.8,39,0.00,,,0.00,VWS V14.01,2013-06-18 22:20:00,
2013-06-18 18:22:00,70.8,44.1,29.94,ENE,74,12.9,12.9,38,0.00,,,0.00,VWS V14.01,2013-06-18 22:22:00,
2013-06-18 18:23:00,71.2,44.5,29.94,ENE,73,10.5,10.5,38,0.00,,,0.00,VWS V14.01,2013-06-18 22:23:00,
2013-06-18 18:24:00,71.8,45.5,29.96,NE,52,10.0,10.5,39,0.00,,,0.00,VWS V14.01,2013-06-18 22:24:00,
2013-06-18 18:26:00,70.4,44.7,29.94,NE,53,10.5,10.5,40,0.00,,,0.00,VWS V14.01,2013-06-18 22:26:00,
2013-06-18 18:27:00,70.8,45.8,29.94,ENE,71,5.7,9.7,41,0.00,,,0.00,VWS V14.01,2013-06-18 22:27:00,
2013-06-18 18:28:00,69.8,43.9,29.94,ENE,64,10.4,10.4,39,0.00,,,0.00,VWS V14.01,2013-06-18 22:28:00,
2013-06-18 18:30:00,71.2,46.8,29.93,NE,52,6.9,7.6,42,0.00,,,0.00,VWS V14.01,2013-06-18 22:30:00,
2013-06-18 18:31:00,70.8,44.8,29.95,East,86,8.7,10.2,39,0.00,,,0.00,VWS V14.01,2013-06-18 22:31:00,
2013-06-18 18:33:00,69.3,42.2,29.95,ENE,61,8.0,8.0,37,0.00,,,0.00,VWS V14.01,2013-06-18 22:33:00,
2013-06-18 18:34:00,69.9,43.9,29.94,ENE,69,7.8,9.3,39,0.00,,,0.00,VWS V14.01,2013-06-18 22:34:00,
2013-06-18 18:36:00,69.5,44.6,29.94,NNE,26,7.8,10.5,41,0.00,,,0.00,VWS V14.01,2013-06-18 22:36:00,
2013-06-18 18:38:00,69.5,45.0,29.94,ENE,63,8.3,9.2,41,0.00,,,0.00,VWS V14.01,2013-06-18 22:38:00,
2013-06-18 18:39:00,69.9,44.8,29.95,ENE,74,9.3,9.3,41,0.00,,,0.00,VWS V14.01,2013-06-18 22:39:00,
2013-06-18 18:41:00,69.1,44.0,29.95,NE,47,8.5,8.5,40,0.00,,,0.00,VWS V14.01,2013-06-18 22:41:00,
2013-06-18 18:44:00,69.1,44.2,29.96,NE,51,8.3,8.3,41,0.00,,,0.00,VWS V14.01,2013-06-18 22:44:00,
2013-06-18 18:45:00,69.1,44.5,29.95,NE,55,3.9,8.3,41,0.00,,,0.00,VWS V14.01,2013-06-18 22:45:00,
2013-06-18 18:46:00,69.4,45.0,29.95,ENE,59,6.6,6.6,41,0.00,,,0.00,VWS V14.01,2013-06-18 22:46:00,
2013-06-18 18:49:00,70.0,44.7,29.94,ENE,58,6.9,6.9,40,0.00,,,0.00,VWS V14.01,2013-06-18 22:49:00,
2013-06-18 18:50:00,69.9,45.2,29.95,NE,40,5.2,6.9,41,0.00,,,0.00,VWS V14.01,2013-06-18 22:50:00,
2013-06-18 18:51:00,69.1,44.8,29.95,NE,43,7.5,7.5,41,0.00,,,0.00,VWS V14.01,2013-06-18 22:51:00,
2013-06-18 18:53:00,69.0,44.0,29.95,NE,49,8.3,8.3,40,0.00,,,0.00,VWS V14.01,2013-06-18 22:53:00,
2013-06-18 18:55:00,68.8,44.2,29.95,NE,53,8.5,8.5,41,0.00,,,0.00,VWS V14.01,2013-06-18 22:55:00,
2013-06-18 18:56:00,68.8,44.3,29.96,ENE,68,8.8,10.0,41,0.00,,,0.00,VWS V14.01,2013-06-18 22:56:00,
2013-06-18 18:57:00,68.8,44.0,29.96,NE,56,10.4,10.4,41,0.00,,,0.00,VWS V14.01,2013-06-18 22:57:00,
2013-06-18 18:59:00,68.6,44.7,29.96,NE,54,8.5,8.5,42,0.00,,,0.00,VWS V14.01,2013-06-18 22:59:00,
2013-06-18 19:00:00,68.9,44.9,29.95,NE,52,9.0,9.0,42,0.00,,,0.00,VWS V14.01,2013-06-18 23:00:00,
2013-06-18 19:02:00,68.9,44.6,29.98,NE,39,5.4,9.5,42,0.00,,,0.00,VWS V14.01,2013-06-18 23:02:00,
2013-06-18 19:04:00,68.8,45.3,29.98,NE,42,4.9,5.7,43,0.00,,,0.00,VWS V14.01,2013-06-18 23:04:00,
2013-06-18 19:05:00,69.1,45.6,29.96,NE,39,5.6,5.6,43,0.00,,,0.00,VWS V14.01,2013-06-18 23:05:00,
2013-06-18 19:06:00,68.9,44.8,29.96,NE,44,6.4,6.4,42,0.00,,,0.00,VWS V14.01,2013-06-18 23:06:00,
2013-06-18 19:07:00,69.0,40.8,29.95,NE,56,5.7,6.6,36,0.00,,,0.00,VWS V14.01,2013-06-18 23:07:00,
2013-06-18 19:09:00,69.3,45.5,29.96,ENE,68,7.6,7.6,42,0.00,,,0.00,VWS V14.01,2013-06-18 23:09:00,
2013-06-18 19:12:00,69.4,45.7,29.96,ENE,69,6.1,6.8,43,0.00,,,0.00,VWS V14.01,2013-06-18 23:12:00,
2013-06-18 19:13:00,70.0,46.0,29.95,ENE,63,7.5,7.5,42,0.00,,,0.00,VWS V14.01,2013-06-18 23:13:00,
2013-06-18 19:14:00,69.2,44.9,29.96,East,79,7.5,7.8,42,0.00,,,0.00,VWS V14.01,2013-06-18 23:14:00,
2013-06-18 19:18:00,68.9,43.5,29.95,ENE,66,9.0,9.0,40,0.00,,,0.00,VWS V14.01,2013-06-18 23:18:00,
2013-06-18 19:20:00,69.8,45.2,29.95,ENE,68,7.5,10.2,41,0.00,,,0.00,VWS V14.01,2013-06-18 23:20:00,
2013-06-18 19:21:00,70.1,46.0,29.95,ENE,58,8.0,8.0,42,0.00,,,0.00,VWS V14.01,2013-06-18 23:21:00,
2013-06-18 19:23:00,69.0,45.4,29.95,ENE,72,5.1,8.7,43,0.00,,,0.00,VWS V14.01,2013-06-18 23:23:00,
2013-06-18 19:24:00,68.6,44.9,29.96,ENE,74,9.2,9.2,42,0.00,,,0.00,VWS V14.01,2013-06-18 23:24:00,
2013-06-18 19:25:00,68.7,45.4,29.95,East,80,7.1,9.2,43,0.00,,,0.00,VWS V14.01,2013-06-18 23:25:00,
2013-06-18 19:26:00,68.8,45.9,29.96,ENE,62,5.7,7.1,44,0.00,,,0.00,VWS V14.01,2013-06-18 23:26:00,
2013-06-18 19:28:00,68.6,44.8,29.95,East,92,11.2,11.2,42,0.00,,,0.00,VWS V14.01,2013-06-18 23:28:00,
2013-06-18 19:29:00,68.6,45.3,29.95,East,88,8.1,11.2,43,0.00,,,0.00,VWS V14.01,2013-06-18 23:29:00,
2013-06-18 19:31:00,68.7,44.3,29.96,ENE,73,5.7,8.3,41,0.00,,,0.00,VWS V14.01,2013-06-18 23:31:00,
2013-06-18 19:32:00,68.6,46.7,29.96,ENE,73,4.7,7.8,45,0.00,,,0.00,VWS V14.01,2013-06-18 23:32:00,
2013-06-18 19:34:00,68.3,46.5,29.95,ENE,67,4.7,5.6,46,0.00,,,0.00,VWS V14.01,2013-06-18 23:34:00,
2013-06-18 19:37:00,68.3,45.6,29.96,ENE,68,6.8,7.5,44,0.00,,,0.00,VWS V14.01,2013-06-18 23:37:00,
2013-06-18 19:38:00,68.5,46.1,29.96,NE,43,4.5,6.8,45,0.00,,,0.00,VWS V14.01,2013-06-18 23:38:00,
2013-06-18 19:39:00,68.5,45.5,29.96,ENE,58,6.8,6.8,44,0.00,,,0.00,VWS V14.01,2013-06-18 23:39:00,
2013-06-18 19:40:00,68.4,45.1,29.96,NE,54,8.3,8.3,43,0.00,,,0.00,VWS V14.01,2013-06-18 23:40:00,
2013-06-18 19:41:00,68.4,45.7,29.95,ENE,61,5.4,5.4,44,0.00,,,0.00,VWS V14.01,2013-06-18 23:41:00,
2013-06-18 19:43:00,69.3,44.3,29.96,NE,47,5.7,5.7,40,0.00,,,0.00,VWS V14.01,2013-06-18 23:43:00,
2013-06-18 19:44:00,68.7,45.3,29.96,NE,43,5.9,5.9,43,0.00,,,0.00,VWS V14.01,2013-06-18 23:44:00,
2013-06-18 19:45:00,68.2,45.3,29.95,NE,39,6.3,6.3,44,0.00,,,0.00,VWS V14.01,2013-06-18 23:45:00,
2013-06-18 19:46:00,68.3,45.0,29.96,NE,54,7.6,7.6,43,0.00,,,0.00,VWS V14.01,2013-06-18 23:46:00,
2013-06-18 19:48:00,68.3,45.3,29.96,NE,50,7.1,7.1,43,0.00,,,0.00,VWS V14.01,2013-06-18 23:48:00,
2013-06-18 19:50:00,68.4,45.0,29.96,ENE,62,7.5,7.6,43,0.00,,,0.00,VWS V14.01,2013-06-18 23:50:00,
2013-06-18 19:51:00,68.4,45.4,29.95,NE,55,7.3,7.5,44,0.00,,,0.00,VWS V14.01,2013-06-18 23:51:00,
2013-06-18 19:52:00,68.3,44.9,29.96,NNE,32,7.3,7.3,43,0.00,,,0.00,VWS V14.01,2013-06-18 23:52:00,
2013-06-18 19:54:00,68.2,44.7,29.95,NE,43,8.7,8.7,43,0.00,,,0.00,VWS V14.01,2013-06-18 23:54:00,
2013-06-18 19:55:00,68.2,45.3,29.98,ENE,61,6.9,8.7,44,0.00,,,0.00,VWS V14.01,2013-06-18 23:55:00,
2013-06-18 19:56:00,68.3,44.9,29.96,ENE,76,10.4,10.4,43,0.00,,,0.00,VWS V14.01,2013-06-18 23:56:00,
2013-06-18 19:58:00,68.2,44.6,29.97,ENE,72,7.5,7.5,42,0.00,,,0.00,VWS V14.01,2013-06-18 23:58:00,
2013-06-18 20:00:00,67.9,44.8,29.96,NE,51,5.7,5.7,43,0.00,,,0.00,VWS V14.01,2013-06-19 00:00:00,
2013-06-18 20:01:00,67.9,45.0,29.95,NE,44,6.3,6.3,44,0.00,,,0.00,VWS V14.01,2013-06-19 00:01:00,
2013-06-18 20:03:00,67.6,45.2,29.96,NE,49,4.4,7.5,45,0.00,,,0.00,VWS V14.01,2013-06-19 00:03:00,
2013-06-18 20:05:00,67.8,45.1,29.97,ENE,58,5.1,5.6,44,0.00,,,0.00,VWS V14.01,2013-06-19 00:05:00,
2013-06-18 20:06:00,67.8,41.5,29.97,NE,51,5.1,5.1,38,0.00,,,0.00,VWS V14.01,2013-06-19 00:06:00,
2013-06-18 20:09:00,67.4,45.0,29.96,NE,45,5.4,5.4,44,0.00,,,0.00,VWS V14.01,2013-06-19 00:09:00,
2013-06-18 20:11:00,67.9,44.0,29.96,NNE,28,7.6,7.6,42,0.00,,,0.00,VWS V14.01,2013-06-19 00:11:00,
2013-06-18 20:12:00,67.9,44.2,29.97,NE,53,6.6,7.6,42,0.00,,,0.00,VWS V14.01,2013-06-19 00:12:00,
2013-06-18 20:13:00,68.0,44.1,29.97,NNE,27,6.4,6.6,42,0.00,,,0.00,VWS V14.01,2013-06-19 00:13:00,
2013-06-18 20:14:00,67.6,44.2,29.96,NE,49,5.4,6.8,43,0.00,,,0.00,VWS V14.01,2013-06-19 00:14:00,
2013-06-18 20:16:00,67.8,44.2,29.97,NE,37,4.5,5.4,43,0.00,,,0.00,VWS V14.01,2013-06-19 00:16:00,
2013-06-18 20:17:00,67.7,43.7,29.97,NE,37,6.8,9.2,42,0.00,,,0.00,VWS V14.01,2013-06-19 00:17:00,
2013-06-18 20:18:00,67.8,43.9,29.97,NE,35,8.0,9.2,42,0.00,,,0.00,VWS V14.01,2013-06-19 00:18:00,
2013-06-18 20:19:00,67.5,43.9,29.97,NE,56,3.9,5.4,42,0.00,,,0.00,VWS V14.01,2013-06-19 00:19:00,
2013-06-18 20:22:00,67.8,44.3,29.98,NE,42,4.7,5.4,43,0.00,,,0.00,VWS V14.01,2013-06-19 00:22:00,
2013-06-18 20:23:00,67.7,44.0,29.97,NE,41,6.8,6.8,42,0.00,,,0.00,VWS V14.01,2013-06-19 00:23:00,
2013-06-18 20:24:00,67.6,43.8,29.97,NE,48,5.2,7.5,42,0.00,,,0.00,VWS V14.01,2013-06-19 00:24:00,
2013-06-18 20:25:00,67.6,43.8,29.97,NE,56,6.9,6.9,42,0.00,,,0.00,VWS V14.01,2013-06-19 00:25:00,
2013-06-18 20:27:00,67.2,44.4,29.97,NE,43,4.0,4.0,44,0.00,,,0.00,VWS V14.01,2013-06-19 00:27:00,
2013-06-18 20:29:00,67.1,44.6,30.00,ENE,58,3.5,4.4,44,0.00,,,0.00,VWS V14.01,2013-06-19 00:29:00,
2013-06-18 20:31:00,67.4,43.7,29.98,NE,48,6.9,8.7,42,0.00,,,0.00,VWS V14.01,2013-06-19 00:31:00,
2013-06-18 20:33:00,67.2,43.8,29.97,NE,48,5.6,6.8,43,0.00,,,0.00,VWS V14.01,2013-06-19 00:33:00,
2013-06-18 20:34:00,67.6,44.4,29.98,NNE,18,2.8,5.4,43,0.00,,,0.00,VWS V14.01,2013-06-19 00:34:00,
2013-06-18 20:35:00,67.3,41.7,29.97,NNE,20,6.9,6.9,39,0.00,,,0.00,VWS V14.01,2013-06-19 00:35:00,
2013-06-18 20:36:00,67.0,44.1,29.98,NNE,26,3.2,6.9,43,0.00,,,0.00,VWS V14.01,2013-06-19 00:36:00,
2013-06-18 20:38:00,67.0,43.9,29.97,NE,42,5.1,8.0,43,0.00,,,0.00,VWS V14.01,2013-06-19 00:38:00,
2013-06-18 20:40:00,66.9,43.7,29.97,NE,50,5.2,6.4,43,0.00,,,0.00,VWS V14.01,2013-06-19 00:40:00,
2013-06-18 20:42:00,67.3,43.5,29.98,NE,44,6.6,6.6,42,0.00,,,0.00,VWS V14.01,2013-06-19 00:42:00,
2013-06-18 20:44:00,66.8,43.6,29.97,NE,47,4.7,6.3,43,0.00,,,0.00,VWS V14.01,2013-06-19 00:44:00,
2013-06-18 20:46:00,67.0,43.2,29.98,ENE,65,6.9,6.9,42,0.00,,,0.00,VWS V14.01,2013-06-19 00:46:00,
2013-06-18 20:48:00,67.0,43.1,29.98,ENE,61,7.1,7.1,42,0.00,,,0.00,VWS V14.01,2013-06-19 00:48:00,
2013-06-18 20:49:00,67.6,43.0,29.97,NNE,22,9.7,9.7,41,0.00,,,0.00,VWS V14.01,2013-06-19 00:49:00,
2013-06-18 20:50:00,66.8,42.9,29.98,ENE,57,4.7,9.7,42,0.00,,,0.00,VWS V14.01,2013-06-19 00:50:00,
2013-06-18 20:51:00,66.8,43.0,29.97,NE,49,5.6,5.6,42,0.00,,,0.00,VWS V14.01,2013-06-19 00:51:00,
2013-06-18 20:53:00,66.3,43.0,29.98,NE,54,5.4,5.4,43,0.00,,,0.00,VWS V14.01,2013-06-19 00:53:00,
2013-06-18 20:56:00,66.7,42.7,30.00,NE,55,8.7,8.7,42,0.00,,,0.83,VWS V14.01,2013-06-19 00:56:00,
2013-06-18 20:57:00,66.2,42.9,29.98,ENE,66,4.9,8.7,43,0.00,,,0.00,VWS V14.01,2013-06-19 00:57:00,
2013-06-18 20:59:00,66.2,43.0,29.98,NE,47,6.8,6.8,43,0.00,,,0.00,VWS V14.01,2013-06-19 00:59:00,
2013-06-18 21:00:00,66.3,42.8,29.98,NE,53,7.6,7.6,42,0.00,,,0.00,VWS V14.01,2013-06-19 01:00:00,
2013-06-18 21:02:00,66.3,42.8,29.98,NE,53,7.6,7.6,42,0.00,,,0.00,VWS V14.01,2013-06-19 01:02:00,
2013-06-18 21:03:00,66.3,42.8,29.98,NE,53,7.6,7.6,42,0.00,,,0.00,VWS V14.01,2013-06-19 01:03:00,
2013-06-18 21:05:00,66.1,42.0,29.98,ENE,59,4.9,5.1,42,0.00,,,0.00,VWS V14.01,2013-06-19 01:05:00,
2013-06-18 21:07:00,65.8,42.2,29.99,NE,35,4.2,7.1,42,0.00,,,0.00,VWS V14.01,2013-06-19 01:07:00,
2013-06-18 21:08:00,66.0,40.0,29.99,ENE,65,6.4,7.5,38,0.00,,,0.00,VWS V14.01,2013-06-19 01:08:00,
2013-06-18 21:09:00,66.0,41.5,29.99,NE,50,6.8,7.5,41,0.00,,,0.00,VWS V14.01,2013-06-19 01:09:00,
2013-06-18 21:11:00,65.8,41.3,29.98,NE,51,5.4,7.6,41,0.00,,,0.00,VWS V14.01,2013-06-19 01:11:00,
2013-06-18 21:13:00,65.8,41.5,29.99,ENE,60,5.1,7.6,41,0.00,,,0.00,VWS V14.01,2013-06-19 01:13:00,
2013-06-18 21:14:00,65.5,41.5,29.98,NE,44,5.4,7.6,42,0.00,,,0.00,VWS V14.01,2013-06-19 01:14:00,
2013-06-18 21:17:00,65.1,41.7,29.99,NE,54,4.4,7.6,42,0.00,,,0.00,VWS V14.01,2013-06-19 01:17:00,
2013-06-18 21:18:00,65.2,41.9,29.99,ENE,63,7.1,7.6,43,0.00,,,0.00,VWS V14.01,2013-06-19 01:18:00,
2013-06-18 21:19:00,65.3,41.9,29.98,NE,52,5.2,7.6,42,0.00,,,0.00,VWS V14.01,2013-06-19 01:19:00,
2013-06-18 21:20:00,65.3,42.3,30.02,NE,45,3.9,7.6,43,0.00,,,0.00,VWS V14.01,2013-06-19 01:20:00,
2013-06-18 21:21:00,65.1,42.1,30.00,NE,48,3.7,7.6,43,0.00,,,0.00,VWS V14.01,2013-06-19 01:21:00,
2013-06-18 21:24:00,64.8,42.8,30.00,NE,48,3.9,7.6,45,0.00,,,0.00,VWS V14.01,2013-06-19 01:24:00,
2013-06-18 21:25:00,64.9,42.9,30.00,NE,56,4.4,7.6,45,0.00,,,0.00,VWS V14.01,2013-06-19 01:25:00,
2013-06-18 21:26:00,64.8,43.1,29.99,NE,54,3.9,7.6,45,0.00,,,0.00,VWS V14.01,2013-06-19 01:26:00,
2013-06-18 21:27:00,64.5,42.9,29.99,NE,52,3.9,7.6,45,0.00,,,0.00,VWS V14.01,2013-06-19 01:27:00,
2013-06-18 21:30:00,64.5,43.4,30.00,NE,44,4.0,7.6,46,0.00,,,0.00,VWS V14.01,2013-06-19 01:30:00,
2013-06-18 21:31:00,63.9,43.1,30.00,NE,53,3.7,7.6,47,0.00,,,0.00,VWS V14.01,2013-06-19 01:31:00,
2013-06-18 21:32:00,64.7,43.1,30.00,NNE,33,5.2,7.6,45,0.00,,,0.00,VWS V14.01,2013-06-19 01:32:00,
2013-06-18 21:34:00,64.3,43.1,30.00,NE,52,4.4,7.6,46,0.00,,,0.00,VWS V14.01,2013-06-19 01:34:00,
2013-06-18 21:36:00,64.8,43.1,30.00,NE,52,5.7,7.6,45,0.00,,,0.00,VWS V14.01,2013-06-19 01:36:00,
2013-06-18 21:37:00,64.4,42.9,30.00,NE,51,5.2,7.6,45,0.00,,,0.00,VWS V14.01,2013-06-19 01:37:00,
2013-06-18 21:39:00,64.2,42.7,30.00,NE,42,4.0,7.6,45,0.00,,,0.00,VWS V14.01,2013-06-19 01:39:00,
2013-06-18 21:42:00,64.3,42.9,30.00,NE,36,5.7,7.6,46,0.00,,,0.00,VWS V14.01,2013-06-19 01:42:00,
2013-06-18 21:44:00,63.9,42.3,30.00,NE,47,5.6,7.6,45,0.00,,,0.00,VWS V14.01,2013-06-19 01:44:00,
2013-06-18 21:45:00,64.0,42.4,30.01,NE,51,4.4,7.6,45,0.00,,,0.00,VWS V14.01,2013-06-19 01:45:00,
2013-06-18 21:47:00,63.8,42.2,30.00,NE,47,4.9,7.6,45,0.00,,,0.00,VWS V14.01,2013-06-19 01:47:00,
2013-06-18 21:48:00,63.6,42.3,30.03,NE,49,3.9,7.6,46,0.00,,,0.00,VWS V14.01,2013-06-19 01:48:00,
2013-06-18 21:50:00,63.4,42.3,30.01,ENE,58,5.2,7.6,46,0.00,,,0.00,VWS V14.01,2013-06-19 01:50:00,
2013-06-18 21:51:00,63.6,42.4,30.01,NE,53,5.2,7.6,46,0.00,,,0.00,VWS V14.01,2013-06-19 01:51:00,
2013-06-18 21:52:00,63.8,42.2,30.00,NE,48,5.4,7.6,45,0.00,,,0.00,VWS V14.01,2013-06-19 01:52:00,
2013-06-18 21:53:00,63.1,41.9,30.00,NE,52,5.2,7.6,46,0.00,,,0.00,VWS V14.01,2013-06-19 01:53:00,
2013-06-18 21:54:00,63.3,42.4,30.01,NE,52,4.7,7.6,46,0.00,,,0.00,VWS V14.01,2013-06-19 01:54:00,
2013-06-18 21:56:00,63.6,42.3,30.01,NE,47,5.4,7.6,46,0.00,,,0.00,VWS V14.01,2013-06-19 01:56:00,
2013-06-18 21:57:00,63.2,41.5,30.00,NE,45,5.4,7.6,45,0.00,,,0.00,VWS V14.01,2013-06-19 01:57:00,
2013-06-18 21:58:00,63.2,41.5,30.00,NE,45,5.4,7.6,45,0.00,,,0.00,VWS V14.01,2013-06-19 01:58:00,
2013-06-18 21:59:00,63.6,39.7,30.01,NE,36,6.4,7.8,41,0.00,,,0.00,VWS V14.01,2013-06-19 01:59:00,
2013-06-18 22:02:00,63.4,41.0,30.01,NE,51,6.4,7.8,44,0.00,,,0.00,VWS V14.01,2013-06-19 02:02:00,
2013-06-18 22:03:00,63.6,40.8,30.01,NE,48,7.1,7.8,43,0.00,,,0.00,VWS V14.01,2013-06-19 02:03:00,
2013-06-18 22:04:00,62.9,40.5,30.01,NE,48,6.4,7.8,44,0.00,,,0.00,VWS V14.01,2013-06-19 02:04:00,
2013-06-18 22:05:00,63.3,40.7,30.01,ENE,65,7.5,7.8,43,0.00,,,0.00,VWS V14.01,2013-06-19 02:05:00,
2013-06-18 22:08:00,62.7,39.9,30.01,ENE,61,5.9,6.6,43,0.00,,,0.00,VWS V14.01,2013-06-19 02:08:00,
2013-06-18 22:09:00,62.6,40.0,30.01,NE,48,5.4,5.9,43,0.00,,,0.00,VWS V14.01,2013-06-19 02:09:00,
2013-06-18 22:10:00,62.3,39.7,30.01,NE,48,5.7,5.7,43,0.00,,,0.00,VWS V14.01,2013-06-19 02:10:00,
2013-06-18 22:14:00,63.0,38.9,30.02,NE,45,8.7,8.7,41,0.00,,,0.00,VWS V14.01,2013-06-19 02:14:00,
2013-06-18 22:15:00,62.6,38.7,30.01,NE,53,5.6,6.6,41,0.00,,,0.00,VWS V14.01,2013-06-19 02:15:00,
2013-06-18 22:16:00,63.3,39.0,30.01,NE,43,8.1,8.1,41,0.00,,,0.00,VWS V14.01,2013-06-19 02:16:00,
2013-06-18 22:19:00,63.2,38.7,30.02,NE,54,6.3,6.3,40,0.00,,,0.00,VWS V14.01,2013-06-19 02:19:00,
2013-06-18 22:20:00,62.9,38.6,30.02,NE,37,5.7,6.8,41,0.00,,,0.00,VWS V14.01,2013-06-19 02:20:00,
2013-06-18 22:21:00,62.7,38.2,30.01,ENE,58,5.6,6.3,40,0.00,,,0.00,VWS V14.01,2013-06-19 02:21:00,
2013-06-18 22:22:00,62.8,38.3,30.01,NE,46,5.7,5.7,40,0.00,,,0.00,VWS V14.01,2013-06-19 02:22:00,
2013-06-18 22:24:00,62.6,38.2,30.02,NNE,27,6.8,6.8,40,0.00,,,0.00,VWS V14.01,2013-06-19 02:24:00,
2013-06-18 22:26:00,62.2,37.7,30.01,NE,45,5.4,8.1,40,0.00,,,0.00,VWS V14.01,2013-06-19 02:26:00,
2013-06-18 22:27:00,62.9,37.8,30.01,ENE,59,8.3,8.3,39,0.00,,,0.00,VWS V14.01,2013-06-19 02:27:00,
2013-06-18 22:29:00,61.8,37.7,30.02,NE,55,4.5,6.9,41,0.00,,,0.00,VWS V14.01,2013-06-19 02:29:00,
2013-06-18 22:30:00,62.3,37.7,30.02,NE,54,5.9,5.9,40,0.00,,,0.00,VWS V14.01,2013-06-19 02:30:00,
2013-06-18 22:31:00,62.0,37.4,30.01,NE,53,5.9,6.8,40,0.00,,,0.00,VWS V14.01,2013-06-19 02:31:00,
2013-06-18 22:32:00,62.1,37.0,30.02,NE,37,6.6,7.1,39,0.00,,,0.00,VWS V14.01,2013-06-19 02:32:00,
2013-06-18 22:33:00,61.9,36.9,30.02,NE,52,4.5,7.1,39,0.00,,,0.00,VWS V14.01,2013-06-19 02:33:00,
2013-06-18 22:35:00,61.9,37.0,30.02,NE,46,6.1,6.8,39,0.00,,,0.00,VWS V14.01,2013-06-19 02:35:00,
2013-06-18 22:36:00,61.9,36.8,30.02,ENE,58,7.1,7.1,39,0.00,,,0.00,VWS V14.01,2013-06-19 02:36:00,
2013-06-18 22:37:00,62.2,36.5,30.02,NE,52,6.6,6.8,38,0.00,,,0.00,VWS V14.01,2013-06-19 02:37:00,
2013-06-18 22:38:00,61.6,36.1,30.02,NE,36,7.8,7.8,39,0.00,,,0.00,VWS V14.01,2013-06-19 02:38:00,
2013-06-18 22:40:00,61.4,36.3,30.02,NE,49,5.9,7.8,39,0.00,,,0.00,VWS V14.01,2013-06-19 02:40:00,
2013-06-18 22:41:00,61.3,36.2,30.01,NE,50,5.2,7.8,39,0.00,,,0.00,VWS V14.01,2013-06-19 02:41:00,
2013-06-18 22:43:00,61.8,33.5,30.02,ENE,72,5.4,6.1,34,0.00,,,0.00,VWS V14.01,2013-06-19 02:43:00,
2013-06-18 22:44:00,62.1,36.0,30.02,NE,50,6.3,6.3,38,0.00,,,0.00,VWS V14.01,2013-06-19 02:44:00,
2013-06-18 22:46:00,61.8,35.9,30.02,ENE,70,6.4,6.4,38,0.00,,,0.00,VWS V14.01,2013-06-19 02:46:00,
2013-06-18 22:47:00,62.0,35.5,30.02,NE,52,8.1,8.1,37,0.00,,,0.00,VWS V14.01,2013-06-19 02:47:00,
2013-06-18 22:48:00,61.6,35.9,30.02,NE,56,4.4,4.4,38,0.00,,,0.00,VWS V14.01,2013-06-19 02:48:00,
2013-06-18 22:49:00,61.9,35.3,30.03,NE,48,8.3,8.3,37,0.00,,,0.00,VWS V14.01,2013-06-19 02:49:00,
2013-06-18 22:51:00,61.6,35.4,30.02,NE,46,5.6,7.6,37,0.00,,,0.00,VWS V14.01,2013-06-19 02:51:00,
2013-06-18 22:52:00,62.0,35.2,30.02,NE,50,7.5,7.5,37,0.00,,,0.00,VWS V14.01,2013-06-19 02:52:00,
2013-06-18 22:53:00,61.1,35.3,30.03,ENE,69,5.9,7.5,38,0.00,,,0.00,VWS V14.01,2013-06-19 02:53:00,
2013-06-18 22:54:00,61.0,35.4,30.03,ENE,57,5.4,6.6,38,0.00,,,0.00,VWS V14.01,2013-06-19 02:54:00,
2013-06-18 22:55:00,61.0,35.4,30.03,ENE,57,5.4,6.6,38,0.00,,,0.00,VWS V14.01,2013-06-19 02:55:00,
2013-06-18 22:56:00,61.0,35.4,30.02,NE,53,5.6,6.8,38,0.00,,,0.00,VWS V14.01,2013-06-19 02:56:00,
2013-06-18 22:58:00,61.5,35.3,30.02,NE,41,5.9,5.9,37,0.00,,,0.00,VWS V14.01,2013-06-19 02:58:00,
2013-06-18 22:59:00,61.3,35.0,30.04,ENE,61,5.7,7.5,37,0.00,,,0.00,VWS V14.01,2013-06-19 02:59:00,
2013-06-18 23:00:00,61.0,35.0,30.05,NE,56,6.8,7.5,38,0.00,,,0.00,VWS V14.01,2013-06-19 03:00:00,
2013-06-18 23:01:00,60.9,35.2,30.03,NE,34,5.2,6.4,38,0.00,,,0.00,VWS V14.01,2013-06-19 03:01:00,
2013-06-18 23:03:00,61.2,35.0,30.02,NE,34,6.4,6.4,37,0.00,,,0.00,VWS V14.01,2013-06-19 03:03:00,
2013-06-18 23:05:00,60.9,35.1,30.03,NE,53,5.7,5.7,38,0.00,,,0.00,VWS V14.01,2013-06-19 03:05:00,
2013-06-18 23:06:00,61.0,35.2,30.02,NE,34,5.7,5.7,38,0.00,,,0.00,VWS V14.01,2013-06-19 03:06:00,
2013-06-18 23:09:00,61.0,35.3,30.03,ENE,57,4.4,6.9,38,0.00,,,0.00,VWS V14.01,2013-06-19 03:09:00,
2013-06-18 23:11:00,60.9,35.2,30.03,ENE,72,4.4,5.4,38,0.00,,,0.00,VWS V14.01,2013-06-19 03:11:00,
2013-06-18 23:12:00,61.2,35.3,30.03,NE,46,6.1,6.1,38,0.00,,,0.00,VWS V14.01,2013-06-19 03:12:00,
2013-06-18 23:14:00,60.9,34.9,30.04,NE,55,6.8,9.0,38,0.00,,,0.00,VWS V14.01,2013-06-19 03:14:00,
2013-06-18 23:15:00,61.0,35.3,30.04,NE,50,6.1,6.8,38,0.00,,,0.00,VWS V14.01,2013-06-19 03:15:00,
2013-06-18 23:17:00,60.8,35.1,30.03,ENE,68,5.7,5.7,38,0.00,,,0.00,VWS V14.01,2013-06-19 03:17:00,
2013-06-18 23:19:00,60.8,35.1,30.03,ENE,68,5.7,5.7,38,0.00,,,0.00,VWS V14.01,2013-06-19 03:19:00,
2013-06-18 23:20:00,60.7,35.3,30.03,NE,54,4.5,5.1,39,0.00,,,0.00,VWS V14.01,2013-06-19 03:20:00,
2013-06-18 23:21:00,60.5,35.2,30.04,NE,54,4.7,6.1,39,0.00,,,0.00,VWS V14.01,2013-06-19 03:21:00,
2013-06-18 23:23:00,60.7,35.4,30.04,ENE,59,5.7,5.7,39,0.00,,,0.00,VWS V14.01,2013-06-19 03:23:00,
2013-06-18 23:24:00,60.7,35.0,30.04,NE,56,6.6,6.6,38,0.00,,,0.00,VWS V14.01,2013-06-19 03:24:00,
2013-06-18 23:26:00,60.0,35.0,30.03,NE,48,3.5,6.1,39,0.00,,,0.00,VWS V14.01,2013-06-19 03:26:00,
2013-06-18 23:28:00,60.8,35.0,30.04,ENE,60,6.1,6.9,38,0.00,,,0.00,VWS V14.01,2013-06-19 03:28:00,
2013-06-18 23:29:00,60.4,35.0,30.03,NE,42,4.5,4.5,38,0.00,,,0.00,VWS V14.01,2013-06-19 03:29:00,
2013-06-18 23:30:00,60.3,35.1,30.03,NE,54,4.7,4.7,39,0.00,,,0.00,VWS V14.01,2013-06-19 03:30:00,
2013-06-18 23:31:00,60.0,35.3,30.04,NE,56,4.2,5.1,39,0.00,,,0.00,VWS V14.01,2013-06-19 03:31:00,
2013-06-18 23:33:00,60.2,35.2,30.07,NE,55,4.7,4.9,39,0.00,,,0.00,VWS V14.01,2013-06-19 03:33:00,
2013-06-18 23:35:00,59.8,35.6,30.04,NE,56,4.5,4.9,40,0.00,,,0.00,VWS V14.01,2013-06-19 03:35:00,
2013-06-18 23:37:00,59.4,35.7,30.03,NE,47,3.5,3.9,41,0.00,,,0.00,VWS V14.01,2013-06-19 03:37:00,
2013-06-18 23:38:00,59.8,35.8,30.04,ENE,58,3.9,3.9,41,0.00,,,0.00,VWS V14.01,2013-06-19 03:38:00,
2013-06-18 23:41:00,60.0,35.8,30.04,NE,48,4.4,4.7,40,0.00,,,0.00,VWS V14.01,2013-06-19 03:41:00,
2013-06-18 23:42:00,59.6,35.6,30.03,ENE,57,4.9,4.9,41,0.00,,,0.00,VWS V14.01,2013-06-19 03:42:00,
2013-06-18 23:43:00,59.9,35.9,30.03,NE,39,4.4,4.4,41,0.00,,,0.00,VWS V14.01,2013-06-19 03:43:00,
2013-06-18 23:44:00,59.9,35.9,30.03,ENE,68,4.5,4.5,41,0.00,,,0.00,VWS V14.01,2013-06-19 03:44:00,
2013-06-18 23:46:00,59.4,35.9,30.04,ENE,66,4.2,4.2,41,0.00,,,0.00,VWS V14.01,2013-06-19 03:46:00,
2013-06-18 23:47:00,59.4,35.9,30.04,ENE,66,4.2,4.2,41,0.00,,,0.00,VWS V14.01,2013-06-19 03:47:00,
2013-06-18 23:48:00,59.2,36.0,30.04,ENE,61,4.0,5.1,42,0.00,,,0.00,VWS V14.01,2013-06-19 03:48:00,
2013-06-18 23:49:00,59.3,36.0,30.03,NE,46,4.5,5.2,42,0.00,,,0.00,VWS V14.01,2013-06-19 03:49:00,
2013-06-18 23:52:00,58.7,35.8,30.04,NE,55,4.5,4.5,42,0.00,,,0.00,VWS V14.01,2013-06-19 03:52:00,
2013-06-18 23:53:00,59.0,35.8,30.04,ENE,59,4.9,5.2,42,0.00,,,0.00,VWS V14.01,2013-06-19 03:53:00,
2013-06-18 23:54:00,59.2,35.9,30.04,ENE,70,3.9,4.5,41,0.00,,,0.00,VWS V14.01,2013-06-19 03:54:00,
2013-06-18 23:57:00,59.2,36.0,30.04,NE,48,3.5,3.9,42,0.00,,,0.00,VWS V14.01,2013-06-19 03:57:00,
2013-06-18 23:58:00,59.2,36.2,30.04,NE,49,4.0,4.0,42,0.00,,,0.00,VWS V14.01,2013-06-19 03:58:00,
2013-06-18 23:59:00,59.3,36.1,30.04,NNE,33,4.4,4.4,42,0.00,,,0.00,VWS V14.01,2013-06-19 03:59:00,